| time (UTC) | temp C | wind direction | speed KPH | gust KPH | rain 1hr cm | rain 24hr cm | rain mn cm | humidity % | barometer mb |
| 20260508024020 | 15 | 360 | 12.9 | 25.7 | 0.00 | 0.00 | 0.00 | 63 | 1011.7 |
| 20260508023917 | 15 | 360 | 11.3 | 22.5 | 0.00 | 0.00 | 0.00 | 63 | 1011.8 |
| 20260508023830 | 15 | 336 | 12.9 | 22.5 | 0.00 | 0.00 | 0.00 | 63 | 1011.7 |
| 20260508023723 | 15 | 9 | 12.9 | 22.5 | 0.00 | 0.00 | 0.00 | 64 | 1011.7 |
| 20260508023615 | 15 | 344 | 12.9 | 20.9 | 0.00 | 0.00 | 0.00 | 63 | 1011.8 |
| 20260508023527 | 15 | 355 | 12.9 | 20.9 | 0.00 | 0.00 | 0.00 | 63 | 1011.8 |
| 20260508023423 | 15 | 23 | 11.3 | 20.9 | 0.00 | 0.00 | 0.00 | 63 | 1011.8 |
| 20260508023317 | 15 | 17 | 9.7 | 20.9 | 0.00 | 0.00 | 0.00 | 63 | 1011.8 |
| 20260508023228 | 15 | 5 | 11.3 | 22.5 | 0.00 | 0.00 | 0.00 | 63 | 1011.7 |
| 20260508023121 | 15 | 319 | 11.3 | 22.5 | 0.00 | 0.00 | 0.00 | 63 | 1011.8 |
| 20260508023013 | 15 | 360 | 8.0 | 22.5 | 0.00 | 0.00 | 0.00 | 63 | 1011.8 |
| 20260508022928 | 15 | 38 | 9.7 | 22.5 | 0.00 | 0.00 | 0.00 | 63 | 1011.8 |
| 20260508022841 | 15 | 355 | 11.3 | 22.5 | 0.00 | 0.00 | 0.00 | 63 | 1011.8 |
| 20260508022712 | 15 | 10 | 11.3 | 22.5 | 0.00 | 0.00 | 0.00 | 62 | 1011.8 |
| 20260508022625 | 15 | 345 | 12.9 | 22.5 | 0.00 | 0.00 | 0.00 | 62 | 1011.8 |
| 20260508022516 | 15 | 350 | 12.9 | 22.5 | 0.00 | 0.00 | 0.00 | 62 | 1011.8 |
| 20260508022449 | 15 | 28 | 16.1 | 22.5 | 0.00 | 0.00 | 0.00 | 63 | 1011.8 |
| 20260508022324 | 15 | 336 | 14.5 | 22.5 | 0.00 | 0.00 | 0.00 | 63 | 1011.8 |
| 20260508022216 | 15 | 13 | 11.3 | 22.5 | 0.00 | 0.00 | 0.00 | 63 | 1011.7 |
| 20260508022148 | 15 | 24 | 11.3 | 22.5 | 0.00 | 0.00 | 0.00 | 63 | 1011.9 |
| 20260508022039 | 15 | 326 | 12.9 | 22.5 | 0.00 | 0.00 | 0.00 | 63 | 1011.8 |
| 20260508021930 | 15 | 22 | 14.5 | 22.5 | 0.00 | 0.00 | 0.00 | 62 | 1011.8 |
| 20260508021842 | 15 | 344 | 12.9 | 20.9 | 0.00 | 0.00 | 0.00 | 62 | 1011.9 |
| 20260508021718 | 15 | 317 | 14.5 | 20.9 | 0.00 | 0.00 | 0.00 | 62 | 1011.9 |
| 20260508021650 | 15 | 355 | 12.9 | 20.9 | 0.00 | 0.00 | 0.00 | 62 | 1011.9 |
| 20260508021523 | 15 | 350 | 11.3 | 20.9 | 0.00 | 0.00 | 0.00 | 61 | 1012.0 |
| 20260508021416 | 15 | 16 | 12.9 | 20.9 | 0.00 | 0.00 | 0.00 | 61 | 1011.9 |
| 20260508021328 | 15 | 5 | 12.9 | 20.9 | 0.00 | 0.00 | 0.00 | 61 | 1011.9 |
| 20260508021224 | 15 | 351 | 12.9 | 20.9 | 0.00 | 0.00 | 0.00 | 61 | 1011.9 |
| 20260508021117 | 15 | 344 | 12.9 | 19.3 | 0.00 | 0.00 | 0.00 | 61 | 1011.9 |
| 20260508021049 | 15 | 355 | 12.9 | 19.3 | 0.00 | 0.00 | 0.00 | 61 | 1012.0 |
| 20260508020817 | 15 | 337 | 12.9 | 19.3 | 0.00 | 0.00 | 0.00 | 61 | 1012.0 |
| 20260508020730 | 15 | 355 | 11.3 | 20.9 | 0.00 | 0.00 | 0.00 | 61 | 1012.0 |
| 20260508020627 | 15 | 355 | 11.3 | 22.5 | 0.00 | 0.00 | 0.00 | 61 | 1012.0 |
| 20260508020518 | 15 | 14 | 11.3 | 22.5 | 0.00 | 0.00 | 0.00 | 60 | 1012.0 |
| 20260508020429 | 15 | 355 | 11.3 | 25.7 | 0.00 | 0.00 | 0.00 | 60 | 1012.0 |
| 20260508020319 | 15 | 355 | 9.7 | 25.7 | 0.00 | 0.00 | 0.00 | 60 | 1012.1 |
| 20260508020251 | 15 | 350 | 11.3 | 25.7 | 0.00 | 0.00 | 0.00 | 60 | 1012.0 |
| 20260508020122 | 15 | 336 | 11.3 | 25.7 | 0.00 | 0.00 | 0.00 | 59 | 1012.0 |
| 20260508020012 | 15 | 347 | 11.3 | 25.7 | 0.00 | 0.00 | 0.00 | 59 | 1012.0 |
| 20260508015922 | 15 | 331 | 12.9 | 25.7 | 0.00 | 0.00 | 0.00 | 59 | 1012.0 |
| 20260508015817 | 15 | 360 | 14.5 | 25.7 | 0.00 | 0.00 | 0.00 | 59 | 1012.0 |
| 20260508015750 | 15 | 360 | 16.1 | 25.7 | 0.00 | 0.00 | 0.00 | 60 | 1012.0 |
| 20260508015621 | 15 | 344 | 16.1 | 25.7 | 0.00 | 0.00 | 0.00 | 59 | 1012.1 |
| 20260508015514 | 15 | 350 | 14.5 | 25.7 | 0.00 | 0.00 | 0.00 | 60 | 1012.0 |
| 20260508015447 | 15 | 323 | 12.9 | 20.9 | 0.00 | 0.00 | 0.00 | 59 | 1012.0 |
| 20260508015339 | 15 | 320 | 14.5 | 20.9 | 0.00 | 0.00 | 0.00 | 59 | 1012.0 |
| 20260508015215 | 15 | 340 | 16.1 | 20.9 | 0.00 | 0.00 | 0.00 | 59 | 1012.0 |
| 20260508015127 | 15 | 342 | 16.1 | 20.9 | 0.00 | 0.00 | 0.00 | 59 | 1012.0 |
| 20260508015019 | 15 | 344 | 12.9 | 19.3 | 0.00 | 0.00 | 0.00 | 59 | 1012.0 |
| 20260508014930 | 15 | 328 | 12.9 | 19.3 | 0.00 | 0.00 | 0.00 | 59 | 1012.0 |
| 20260508014822 | 15 | 295 | 11.3 | 20.9 | 0.00 | 0.00 | 0.00 | 59 | 1012.1 |
| 20260508014719 | 15 | 325 | 11.3 | 22.5 | 0.00 | 0.00 | 0.00 | 59 | 1012.1 |
| 20260508014612 | 15 | 335 | 11.3 | 22.5 | 0.00 | 0.00 | 0.00 | 59 | 1012.1 |
| 20260508014525 | 15 | 351 | 11.3 | 22.5 | 0.00 | 0.00 | 0.00 | 59 | 1012.1 |
| 20260508014417 | 15 | 320 | 11.3 | 22.5 | 0.00 | 0.00 | 0.00 | 59 | 1012.1 |
| 20260508014329 | 15 | 342 | 12.9 | 22.5 | 0.00 | 0.00 | 0.00 | 59 | 1012.1 |
| 20260508014241 | 15 | 5 | 12.9 | 22.5 | 0.00 | 0.00 | 0.00 | 59 | 1012.0 |
| 20260508014117 | 15 | 351 | 11.3 | 22.5 | 0.00 | 0.00 | 0.00 | 59 | 1012.0 |
| 20260508014049 | 15 | 23 | 12.9 | 22.5 | 0.00 | 0.00 | 0.00 | 59 | 1012.0 |
| 20260508013921 | 15 | 334 | 16.1 | 22.5 | 0.00 | 0.00 | 0.00 | 59 | 1012.0 |
| 20260508013832 | 15 | 355 | 14.5 | 22.5 | 0.00 | 0.00 | 0.00 | 59 | 1012.1 |
| 20260508013744 | 15 | 341 | 11.3 | 20.9 | 0.00 | 0.00 | 0.00 | 59 | 1012.0 |
| 20260508013635 | 15 | 351 | 11.3 | 20.9 | 0.00 | 0.00 | 0.00 | 59 | 1012.0 |
| 20260508013531 | 15 | 23 | 12.9 | 19.3 | 0.00 | 0.00 | 0.00 | 59 | 1012.0 |
| 20260508013443 | 15 | 355 | 14.5 | 19.3 | 0.00 | 0.00 | 0.00 | 59 | 1012.0 |
| 20260508013316 | 15 | 5 | 16.1 | 19.3 | 0.00 | 0.00 | 0.00 | 59 | 1012.1 |
| 20260508013228 | 15 | 320 | 14.5 | 19.3 | 0.00 | 0.00 | 0.00 | 59 | 1012.1 |
| 20260508013141 | 15 | 355 | 14.5 | 19.3 | 0.00 | 0.00 | 0.00 | 59 | 1012.1 |
| 20260508013053 | 15 | 348 | 14.5 | 19.3 | 0.00 | 0.00 | 0.00 | 59 | 1012.1 |
| 20260508012927 | 15 | 341 | 14.5 | 19.3 | 0.00 | 0.00 | 0.00 | 59 | 1012.1 |
| 20260508012820 | 15 | 341 | 11.3 | 19.3 | 0.00 | 0.00 | 0.00 | 59 | 1012.1 |
| 20260508012712 | 15 | 339 | 11.3 | 19.3 | 0.00 | 0.00 | 0.00 | 59 | 1012.1 |
| 20260508012625 | 15 | 328 | 11.3 | 19.3 | 0.00 | 0.00 | 0.00 | 59 | 1012.1 |
| 20260508012515 | 15 | 5 | 11.3 | 19.3 | 0.00 | 0.00 | 0.00 | 59 | 1012.2 |
| 20260508012428 | 15 | 360 | 11.3 | 19.3 | 0.00 | 0.00 | 0.00 | 59 | 1012.2 |
| 20260508012344 | 15 | 346 | 11.3 | 19.3 | 0.00 | 0.00 | 0.00 | 59 | 1012.2 |
| 20260508012215 | 15 | 327 | 12.9 | 19.3 | 0.00 | 0.00 | 0.00 | 59 | 1012.2 |
| 20260508012127 | 15 | 320 | 11.3 | 22.5 | 0.00 | 0.00 | 0.00 | 59 | 1012.2 |
| 20260508012041 | 15 | 336 | 12.9 | 22.5 | 0.00 | 0.00 | 0.00 | 59 | 1012.2 |
| 20260508011912 | 15 | 355 | 12.9 | 22.5 | 0.00 | 0.00 | 0.00 | 59 | 1012.2 |
| 20260508011829 | 15 | 343 | 11.3 | 22.5 | 0.00 | 0.00 | 0.00 | 59 | 1012.2 |
| 20260508011722 | 15 | 360 | 11.3 | 22.5 | 0.00 | 0.00 | 0.00 | 58 | 1012.2 |
| 20260508011615 | 15 | 360 | 12.9 | 22.5 | 0.00 | 0.00 | 0.00 | 58 | 1012.3 |
| 20260508011527 | 15 | 355 | 12.9 | 22.5 | 0.00 | 0.00 | 0.00 | 58 | 1012.3 |
| 20260508011419 | 15 | 348 | 14.5 | 22.5 | 0.00 | 0.00 | 0.00 | 58 | 1012.3 |
| 20260508011334 | 15 | 360 | 16.1 | 22.5 | 0.00 | 0.00 | 0.00 | 58 | 1012.3 |
| 20260508011225 | 15 | 348 | 14.5 | 22.5 | 0.00 | 0.00 | 0.00 | 58 | 1012.3 |
| 20260508011118 | 15 | 342 | 12.9 | 22.5 | 0.00 | 0.00 | 0.00 | 59 | 1012.3 |
| 20260508011052 | 15 | 316 | 14.5 | 20.9 | 0.00 | 0.00 | 0.00 | 59 | 1012.3 |
| 20260508010924 | 15 | 355 | 12.9 | 20.9 | 0.00 | 0.00 | 0.00 | 58 | 1012.3 |
| 20260508010814 | 15 | 360 | 12.9 | 20.9 | 0.00 | 0.00 | 0.00 | 59 | 1012.3 |
| 20260508010730 | 15 | 355 | 12.9 | 20.9 | 0.00 | 0.00 | 0.00 | 59 | 1012.3 |
| 20260508010623 | 15 | 334 | 12.9 | 20.9 | 0.00 | 0.00 | 0.00 | 59 | 1012.3 |
| 20260508010515 | 15 | 328 | 12.9 | 20.9 | 0.00 | 0.00 | 0.00 | 59 | 1012.4 |
| 20260508010427 | 15 | 360 | 12.9 | 20.9 | 0.00 | 0.00 | 0.00 | 59 | 1012.4 |
| 20260508010320 | 15 | 333 | 11.3 | 19.3 | 0.00 | 0.00 | 0.00 | 59 | 1012.4 |
| 20260508010216 | 15 | 345 | 12.9 | 19.3 | 0.00 | 0.00 | 0.00 | 59 | 1012.4 |
| 20260508010149 | 15 | 351 | 12.9 | 19.3 | 0.00 | 0.00 | 0.00 | 59 | 1012.4 |
| 20260508010021 | 15 | 345 | 12.9 | 19.3 | 0.00 | 0.00 | 0.00 | 59 | 1012.5 |
| 20260508005914 | 15 | 355 | 12.9 | 19.3 | 0.00 | 0.00 | 0.00 | 59 | 1012.5 |
| 20260508005826 | 15 | 360 | 11.3 | 19.3 | 0.00 | 0.00 | 0.00 | 59 | 1012.5 |
| 20260508005739 | 15 | 348 | 11.3 | 19.3 | 0.00 | 0.00 | 0.00 | 58 | 1012.5 |
| 20260508005615 | 15 | 348 | 12.9 | 19.3 | 0.00 | 0.00 | 0.00 | 58 | 1012.5 |
| 20260508005528 | 15 | 323 | 14.5 | 20.9 | 0.00 | 0.00 | 0.00 | 58 | 1012.5 |
| 20260508005419 | 15 | 344 | 12.9 | 20.9 | 0.00 | 0.00 | 0.00 | 57 | 1012.5 |
| 20260508005330 | 15 | 347 | 12.9 | 20.9 | 0.00 | 0.00 | 0.00 | 56 | 1012.6 |
| 20260508005222 | 15 | 348 | 11.3 | 20.9 | 0.00 | 0.00 | 0.00 | 56 | 1012.6 |
| 20260508005135 | 15 | 342 | 11.3 | 20.9 | 0.00 | 0.00 | 0.00 | 55 | 1012.6 |
| 20260508005031 | 15 | 332 | 11.3 | 20.9 | 0.00 | 0.00 | 0.00 | 55 | 1012.6 |
| 20260508004923 | 15 | 10 | 11.3 | 20.9 | 0.00 | 0.00 | 0.00 | 55 | 1012.6 |
| 20260508004816 | 15 | 342 | 11.3 | 20.9 | 0.00 | 0.00 | 0.00 | 54 | 1012.6 |
| 20260508004728 | 15 | 355 | 12.9 | 20.9 | 0.00 | 0.00 | 0.00 | 54 | 1012.6 |
| 20260508004621 | 15 | 342 | 12.9 | 20.9 | 0.00 | 0.00 | 0.00 | 54 | 1012.6 |
| 20260508004517 | 15 | 325 | 12.9 | 19.3 | 0.00 | 0.00 | 0.00 | 54 | 1012.6 |
| 20260508004448 | 15 | 337 | 12.9 | 19.3 | 0.00 | 0.00 | 0.00 | 54 | 1012.6 |
| 20260508004319 | 15 | 329 | 11.3 | 19.3 | 0.00 | 0.00 | 0.00 | 54 | 1012.6 |
| 20260508004252 | 15 | 330 | 9.7 | 19.3 | 0.00 | 0.00 | 0.00 | 53 | 1012.6 |
| 20260508004144 | 15 | 340 | 11.3 | 19.3 | 0.00 | 0.00 | 0.00 | 53 | 1012.6 |
| 20260508004015 | 15 | 351 | 12.9 | 19.3 | 0.00 | 0.00 | 0.00 | 53 | 1012.6 |
| 20260508003948 | 15 | 351 | 14.5 | 19.3 | 0.00 | 0.00 | 0.00 | 54 | 1012.6 |
| 20260508003823 | 15 | 350 | 11.3 | 17.7 | 0.00 | 0.00 | 0.00 | 54 | 1012.7 |
| 20260508003716 | 15 | 342 | 9.7 | 16.1 | 0.00 | 0.00 | 0.00 | 54 | 1012.7 |
| 20260508003627 | 15 | 355 | 9.7 | 16.1 | 0.00 | 0.00 | 0.00 | 54 | 1012.7 |
| 20260508003520 | 15 | 338 | 9.7 | 16.1 | 0.00 | 0.00 | 0.00 | 54 | 1012.8 |
| 20260508003431 | 15 | 342 | 9.7 | 16.1 | 0.00 | 0.00 | 0.00 | 53 | 1012.7 |
| 20260508003348 | 15 | 348 | 9.7 | 16.1 | 0.00 | 0.00 | 0.00 | 53 | 1012.8 |
| 20260508003239 | 15 | 338 | 9.7 | 16.1 | 0.00 | 0.00 | 0.00 | 54 | 1012.8 |
| 20260508003150 | 15 | 348 | 11.3 | 16.1 | 0.00 | 0.00 | 0.00 | 54 | 1012.7 |
| 20260508003022 | 14 | 339 | 11.3 | 16.1 | 0.00 | 0.00 | 0.00 | 54 | 1012.8 |
| 20260508002914 | 14 | 355 | 9.7 | 16.1 | 0.00 | 0.00 | 0.00 | 54 | 1012.8 |
| 20260508002825 | 14 | 355 | 9.7 | 16.1 | 0.00 | 0.00 | 0.00 | 55 | 1012.8 |
| 20260508002721 | 14 | 344 | 8.0 | 16.1 | 0.00 | 0.00 | 0.00 | 55 | 1012.8 |
| 20260508002614 | 14 | 325 | 8.0 | 16.1 | 0.00 | 0.00 | 0.00 | 56 | 1012.8 |
| 20260508002527 | 14 | 324 | 8.0 | 17.7 | 0.00 | 0.00 | 0.00 | 56 | 1012.8 |
| 20260508002418 | 15 | 324 | 9.7 | 17.7 | 0.00 | 0.00 | 0.00 | 56 | 1012.8 |
| 20260508002330 | 15 | 322 | 9.7 | 17.7 | 0.00 | 0.00 | 0.00 | 56 | 1012.8 |
| 20260508002222 | 15 | 317 | 9.7 | 17.7 | 0.00 | 0.00 | 0.00 | 56 | 1012.8 |
| 20260508002118 | 15 | 329 | 9.7 | 17.7 | 0.00 | 0.00 | 0.00 | 56 | 1012.8 |
| 20260508002032 | 15 | 331 | 9.7 | 17.7 | 0.00 | 0.00 | 0.00 | 56 | 1012.8 |
| 20260508001943 | 15 | 337 | 11.3 | 17.7 | 0.00 | 0.00 | 0.00 | 55 | 1012.8 |
| 20260508001815 | 14 | 322 | 11.3 | 17.7 | 0.00 | 0.00 | 0.00 | 56 | 1012.8 |
| 20260508001728 | 14 | 339 | 11.3 | 17.7 | 0.00 | 0.00 | 0.00 | 56 | 1012.8 |
| 20260508001645 | 14 | 321 | 11.3 | 17.7 | 0.00 | 0.00 | 0.00 | 56 | 1012.7 |
| 20260508001516 | 14 | 323 | 11.3 | 17.7 | 0.00 | 0.00 | 0.00 | 56 | 1012.8 |
| 20260508001429 | 14 | 321 | 11.3 | 17.7 | 0.00 | 0.00 | 0.00 | 56 | 1012.8 |
| 20260508001322 | 14 | 311 | 11.3 | 17.7 | 0.00 | 0.00 | 0.00 | 56 | 1012.8 |
| 20260508001214 | 14 | 321 | 12.9 | 17.7 | 0.00 | 0.00 | 0.00 | 56 | 1012.8 |
| 20260508001130 | 14 | 330 | 12.9 | 16.1 | 0.00 | 0.00 | 0.00 | 56 | 1012.8 |
| 20260508001023 | 13 | 327 | 11.3 | 16.1 | 0.00 | 0.00 | 0.00 | 56 | 1012.8 |
| 20260508000915 | 13 | 328 | 11.3 | 16.1 | 0.00 | 0.00 | 0.00 | 56 | 1012.8 |
| 20260508000827 | 13 | 330 | 9.7 | 16.1 | 0.00 | 0.00 | 0.00 | 57 | 1012.8 |
| 20260508000720 | 13 | 338 | 11.3 | 16.1 | 0.00 | 0.00 | 0.00 | 57 | 1012.8 |
| 20260508000616 | 13 | 323 | 11.3 | 14.5 | 0.00 | 0.00 | 0.00 | 57 | 1012.8 |
| 20260508000530 | 13 | 327 | 9.7 | 14.5 | 0.00 | 0.00 | 0.00 | 57 | 1012.9 |
| 20260508000419 | 13 | 327 | 9.7 | 14.5 | 0.00 | 0.00 | 0.00 | 57 | 1012.9 |
| 20260508000312 | 13 | 321 | 9.7 | 12.9 | 0.00 | 0.00 | 0.00 | 57 | 1012.9 |
| 20260508000221 | 13 | 321 | 9.7 | 12.9 | 0.00 | 0.00 | 0.00 | 57 | 1012.9 |
| 20260508000118 | 13 | 319 | 9.7 | 12.9 | 0.00 | 0.00 | 0.00 | 57 | 1013.0 |
| 20260508000030 | 13 | 318 | 9.7 | 12.9 | 0.00 | 0.00 | 0.00 | 57 | 1013.0 |
| 20260507235942 | 13 | 310 | 9.7 | 12.9 | 0.00 | 0.00 | 0.00 | 57 | 1013.0 |
| 20260507235814 | 13 | 317 | 9.7 | 12.9 | 0.00 | 0.00 | 0.00 | 56 | 1013.0 |
| 20260507235746 | 13 | 317 | 9.7 | 14.5 | 0.00 | 0.00 | 0.00 | 56 | 1013.0 |
| 20260507235618 | 13 | 317 | 8.0 | 14.5 | 0.00 | 0.00 | 0.00 | 55 | 1013.0 |
| 20260507235513 | 13 | 323 | 8.0 | 14.5 | 0.00 | 0.00 | 0.00 | 55 | 1013.0 |
| 20260507235425 | 13 | 325 | 8.0 | 14.5 | 0.00 | 0.00 | 0.00 | 55 | 1013.0 |
| 20260507235318 | 13 | 323 | 8.0 | 16.1 | 0.00 | 0.00 | 0.00 | 55 | 1013.0 |
| 20260507235229 | 13 | 328 | 8.0 | 16.1 | 0.00 | 0.00 | 0.00 | 55 | 1013.0 |
| 20260507235121 | 13 | 333 | 8.0 | 16.1 | 0.00 | 0.00 | 0.00 | 55 | 1013.0 |
| 20260507235033 | 13 | 323 | 9.7 | 16.1 | 0.00 | 0.00 | 0.00 | 55 | 1013.0 |
| 20260507234929 | 13 | 325 | 9.7 | 16.1 | 0.00 | 0.00 | 0.00 | 54 | 1013.0 |
| 20260507234822 | 13 | 310 | 9.7 | 16.1 | 0.00 | 0.00 | 0.00 | 55 | 1013.0 |
| 20260507234713 | 13 | 310 | 11.3 | 16.1 | 0.00 | 0.00 | 0.00 | 54 | 1013.0 |
| 20260507234626 | 13 | 314 | 11.3 | 16.1 | 0.00 | 0.00 | 0.00 | 54 | 1013.0 |
| 20260507234519 | 14 | 327 | 12.9 | 16.1 | 0.00 | 0.00 | 0.00 | 54 | 1013.0 |
| 20260507234415 | 13 | 315 | 11.3 | 16.1 | 0.00 | 0.00 | 0.00 | 54 | 1013.0 |
| 20260507234327 | 14 | 322 | 11.3 | 16.1 | 0.00 | 0.00 | 0.00 | 54 | 1013.0 |
| 20260507234239 | 14 | 305 | 11.3 | 17.7 | 0.00 | 0.00 | 0.00 | 54 | 1013.0 |
| 20260507234129 | 14 | 321 | 11.3 | 17.7 | 0.00 | 0.00 | 0.00 | 54 | 1013.1 |
| 20260507234042 | 14 | 317 | 11.3 | 17.7 | 0.00 | 0.00 | 0.00 | 54 | 1013.1 |
| 20260507233913 | 14 | 325 | 11.3 | 17.7 | 0.00 | 0.00 | 0.00 | 54 | 1013.1 |
| 20260507233825 | 14 | 317 | 11.3 | 17.7 | 0.00 | 0.00 | 0.00 | 54 | 1013.1 |
| 20260507233720 | 13 | 312 | 11.3 | 17.7 | 0.00 | 0.00 | 0.00 | 55 | 1013.0 |
| 20260507233612 | 13 | 318 | 12.9 | 17.7 | 0.00 | 0.00 | 0.00 | 55 | 1013.0 |
| 20260507233524 | 13 | 315 | 12.9 | 17.7 | 0.00 | 0.00 | 0.00 | 55 | 1013.0 |
| 20260507233417 | 13 | 317 | 12.9 | 17.7 | 0.00 | 0.00 | 0.00 | 55 | 1013.1 |
| 20260507233329 | 13 | 315 | 12.9 | 17.7 | 0.00 | 0.00 | 0.00 | 55 | 1013.0 |
| 20260507233217 | 13 | 316 | 12.9 | 17.7 | 0.00 | 0.00 | 0.00 | 55 | 1013.1 |
| 20260507233114 | 13 | 306 | 14.5 | 16.1 | 0.00 | 0.00 | 0.00 | 55 | 1013.1 |
| 20260507233025 | 13 | 320 | 12.9 | 16.1 | 0.00 | 0.00 | 0.00 | 55 | 1013.1 |
| 20260507232917 | 13 | 311 | 12.9 | 16.1 | 0.00 | 0.00 | 0.00 | 55 | 1013.1 |
| 20260507232830 | 13 | 317 | 12.9 | 16.1 | 0.00 | 0.00 | 0.00 | 55 | 1013.1 |
| 20260507232723 | 13 | 320 | 12.9 | 16.1 | 0.00 | 0.00 | 0.00 | 56 | 1013.1 |
| 20260507232615 | 13 | 315 | 11.3 | 16.1 | 0.00 | 0.00 | 0.00 | 55 | 1013.2 |
| 20260507232541 | 13 | 316 | 11.3 | 14.5 | 0.00 | 0.00 | 0.00 | 56 | 1013.2 |
| 20260507232428 | 13 | 317 | 11.3 | 14.5 | 0.00 | 0.00 | 0.00 | 56 | 1013.2 |
| 20260507232317 | 13 | 319 | 11.3 | 14.5 | 0.00 | 0.00 | 0.00 | 55 | 1013.2 |
| 20260507232217 | 13 | 315 | 11.3 | 14.5 | 0.00 | 0.00 | 0.00 | 56 | 1013.2 |
| 20260507232130 | 13 | 319 | 12.9 | 14.5 | 0.00 | 0.00 | 0.00 | 56 | 1013.2 |
| 20260507232021 | 13 | 313 | 11.3 | 14.5 | 0.00 | 0.00 | 0.00 | 56 | 1013.2 |
| 20260507231918 | 13 | 319 | 11.3 | 14.5 | 0.00 | 0.00 | 0.00 | 56 | 1013.1 |
| 20260507231830 | 13 | 320 | 9.7 | 14.5 | 0.00 | 0.00 | 0.00 | 56 | 1013.2 |
| 20260507231723 | 13 | 318 | 9.7 | 14.5 | 0.00 | 0.00 | 0.00 | 56 | 1013.2 |
| 20260507231615 | 13 | 312 | 9.7 | 14.5 | 0.00 | 0.00 | 0.00 | 56 | 1013.1 |
| 20260507231518 | 13 | 306 | 11.3 | 14.5 | 0.00 | 0.00 | 0.00 | 55 | 1013.2 |
| 20260507231429 | 13 | 311 | 11.3 | 14.5 | 0.00 | 0.00 | 0.00 | 56 | 1013.2 |
| 20260507231339 | 13 | 312 | 11.3 | 14.5 | 0.00 | 0.00 | 0.00 | 56 | 1013.2 |
| 20260507231227 | 13 | 308 | 11.3 | 14.5 | 0.00 | 0.00 | 0.00 | 56 | 1013.2 |
| 20260507231120 | 13 | 308 | 11.3 | 14.5 | 0.00 | 0.00 | 0.00 | 56 | 1013.2 |
| 20260507231032 | 13 | 306 | 9.7 | 14.5 | 0.00 | 0.00 | 0.00 | 56 | 1013.2 |
| 20260507230924 | 13 | 313 | 9.7 | 14.5 | 0.00 | 0.00 | 0.00 | 56 | 1013.3 |
| 20260507230820 | 13 | 315 | 9.7 | 14.5 | 0.00 | 0.00 | 0.00 | 56 | 1013.3 |
| 20260507230727 | 13 | 313 | 9.7 | 14.5 | 0.00 | 0.00 | 0.00 | 56 | 1013.3 |
| 20260507230620 | 13 | 310 | 9.7 | 14.5 | 0.00 | 0.00 | 0.00 | 56 | 1013.2 |
| 20260507230551 | 13 | 309 | 9.7 | 14.5 | 0.00 | 0.00 | 0.00 | 57 | 1013.2 |
| 20260507230413 | 13 | 307 | 11.3 | 14.5 | 0.00 | 0.00 | 0.00 | 57 | 1013.2 |
| 20260507230330 | 13 | 311 | 11.3 | 14.5 | 0.00 | 0.00 | 0.00 | 57 | 1013.2 |
| 20260507230237 | 13 | 310 | 12.9 | 14.5 | 0.00 | 0.00 | 0.00 | 58 | 1013.3 |
| 20260507230149 | 13 | 309 | 12.9 | 14.5 | 0.00 | 0.00 | 0.00 | 59 | 1013.3 |
| 20260507230040 | 13 | 309 | 11.3 | 14.5 | 0.00 | 0.00 | 0.00 | 60 | 1013.3 |
| 20260507225920 | 13 | 316 | 12.9 | 14.5 | 0.00 | 0.00 | 0.00 | 59 | 1013.3 |
| 20260507225831 | 13 | 308 | 12.9 | 14.5 | 0.00 | 0.00 | 0.00 | 59 | 1013.3 |
| 20260507225723 | 13 | 311 | 11.3 | 14.5 | 0.00 | 0.00 | 0.00 | 59 | 1013.3 |
| 20260507225616 | 13 | 306 | 11.3 | 14.5 | 0.00 | 0.00 | 0.00 | 59 | 1013.3 |
| 20260507225512 | 13 | 313 | 11.3 | 14.5 | 0.00 | 0.00 | 0.00 | 59 | 1013.3 |
| 20260507225424 | 13 | 309 | 11.3 | 14.5 | 0.00 | 0.00 | 0.00 | 59 | 1013.3 |
| 20260507225317 | 13 | 307 | 11.3 | 14.5 | 0.00 | 0.00 | 0.00 | 59 | 1013.3 |
| 20260507225250 | 13 | 306 | 11.3 | 14.5 | 0.00 | 0.00 | 0.00 | 59 | 1013.3 |
| 20260507225122 | 13 | 312 | 11.3 | 14.5 | 0.00 | 0.00 | 0.00 | 59 | 1013.4 |
| 20260507225013 | 13 | 314 | 9.7 | 12.9 | 0.00 | 0.00 | 0.00 | 59 | 1013.4 |
| 20260507224930 | 13 | 321 | 9.7 | 12.9 | 0.00 | 0.00 | 0.00 | 59 | 1013.4 |
| 20260507224823 | 13 | 315 | 8.0 | 12.9 | 0.00 | 0.00 | 0.00 | 59 | 1013.4 |
| 20260507224715 | 12 | 320 | 8.0 | 12.9 | 0.00 | 0.00 | 0.00 | 59 | 1013.4 |
| 20260507224625 | 12 | 328 | 8.0 | 12.9 | 0.00 | 0.00 | 0.00 | 59 | 1013.4 |
| 20260507224518 | 12 | 317 | 8.0 | 9.7 | 0.00 | 0.00 | 0.00 | 59 | 1013.4 |
| 20260507224435 | 12 | 318 | 4.8 | 11.3 | 0.00 | 0.00 | 0.00 | 60 | 1013.4 |
| 20260507224325 | 12 | 306 | 1.6 | 12.9 | 0.00 | 0.00 | 0.00 | 60 | 1013.4 |
| 20260507224217 | 12 | 302 | 1.6 | 14.5 | 0.00 | 0.00 | 0.00 | 60 | 1013.4 |
| 20260507224130 | 12 | 302 | 3.2 | 14.5 | 0.00 | 0.00 | 0.00 | 59 | 1013.4 |
| 20260507224023 | 13 | 302 | 8.0 | 14.5 | 0.00 | 0.00 | 0.00 | 58 | 1013.4 |
| 20260507223919 | 13 | 304 | 9.7 | 14.5 | 0.00 | 0.00 | 0.00 | 57 | 1013.4 |
| 20260507223812 | 13 | 304 | 9.7 | 14.5 | 0.00 | 0.00 | 0.00 | 57 | 1013.3 |
| 20260507223723 | 13 | 304 | 9.7 | 14.5 | 0.00 | 0.00 | 0.00 | 57 | 1013.3 |
| 20260507223615 | 13 | 304 | 9.7 | 14.5 | 0.00 | 0.00 | 0.00 | 56 | 1013.3 |
| 20260507223528 | 13 | 304 | 9.7 | 14.5 | 0.00 | 0.00 | 0.00 | 57 | 1013.3 |
| 20260507223425 | 13 | 304 | 11.3 | 14.5 | 0.00 | 0.00 | 0.00 | 57 | 1013.3 |
| 20260507223337 | 13 | 305 | 12.9 | 14.5 | 0.00 | 0.00 | 0.00 | 57 | 1013.2 |
| 20260507223229 | 13 | 303 | 12.9 | 14.5 | 0.00 | 0.00 | 0.00 | 58 | 1013.2 |
| 20260507223120 | 13 | 308 | 12.9 | 14.5 | 0.00 | 0.00 | 0.00 | 57 | 1013.2 |
| 20260507223012 | 13 | 310 | 12.9 | 14.5 | 0.00 | 0.00 | 0.00 | 58 | 1013.2 |
| 20260507222925 | 13 | 304 | 12.9 | 14.5 | 0.00 | 0.00 | 0.00 | 58 | 1013.2 |
| 20260507222842 | 13 | 304 | 11.3 | 14.5 | 0.00 | 0.00 | 0.00 | 58 | 1013.2 |
| 20260507222713 | 13 | 306 | 11.3 | 14.5 | 0.00 | 0.00 | 0.00 | 58 | 1013.1 |
| 20260507222626 | 13 | 313 | 11.3 | 14.5 | 0.00 | 0.00 | 0.00 | 57 | 1013.1 |
| 20260507222519 | 13 | 309 | 9.7 | 12.9 | 0.00 | 0.00 | 0.00 | 57 | 1013.2 |
| 20260507222412 | 13 | 313 | 9.7 | 12.9 | 0.00 | 0.00 | 0.00 | 57 | 1013.1 |
| 20260507222329 | 13 | 310 | 9.7 | 12.9 | 0.00 | 0.00 | 0.00 | 57 | 1013.1 |
| 20260507222220 | 13 | 319 | 8.0 | 9.7 | 0.00 | 0.00 | 0.00 | 56 | 1013.1 |
| 20260507222113 | 13 | 318 | 8.0 | 9.7 | 0.00 | 0.00 | 0.00 | 57 | 1013.2 |
| 20260507222026 | 13 | 314 | 8.0 | 9.7 | 0.00 | 0.00 | 0.00 | 57 | 1013.2 |
| 20260507221938 | 12 | 318 | 8.0 | 9.7 | 0.00 | 0.00 | 0.00 | 58 | 1013.2 |
| 20260507221813 | 12 | 317 | 8.0 | 9.7 | 0.00 | 0.00 | 0.00 | 59 | 1013.1 |
| 20260507221726 | 12 | 318 | 8.0 | 9.7 | 0.00 | 0.00 | 0.00 | 59 | 1013.1 |
| 20260507221639 | 12 | 311 | 8.0 | 9.7 | 0.00 | 0.00 | 0.00 | 60 | 1013.1 |
| 20260507221551 | 12 | 306 | 8.0 | 11.3 | 0.00 | 0.00 | 0.00 | 60 | 1013.1 |
| 20260507221423 | 12 | 316 | 8.0 | 9.7 | 0.00 | 0.00 | 0.00 | 60 | 1013.1 |
| 20260507221336 | 12 | 315 | 8.0 | 12.9 | 0.00 | 0.00 | 0.00 | 61 | 1013.1 |
| 20260507221248 | 12 | 302 | 6.4 | 12.9 | 0.00 | 0.00 | 0.00 | 60 | 1013.2 |
| 20260507221144 | 12 | 302 | 6.4 | 12.9 | 0.00 | 0.00 | 0.00 | 60 | 1013.2 |
| 20260507221014 | 12 | 301 | 6.4 | 12.9 | 0.00 | 0.00 | 0.00 | 61 | 1013.2 |
| 20260507220814 | 12 | 301 | 8.0 | 14.5 | 0.00 | 0.00 | 0.00 | 59 | 1013.2 |
| 20260507220726 | 12 | 298 | 8.0 | 14.5 | 0.00 | 0.00 | 0.00 | 59 | 1013.2 |
| 20260507220638 | 12 | 298 | 8.0 | 14.5 | 0.00 | 0.00 | 0.00 | 58 | 1013.1 |
| 20260507220532 | 12 | 298 | 9.7 | 16.1 | 0.00 | 0.00 | 0.00 | 58 | 1013.1 |
| 20260507220444 | 12 | 300 | 11.3 | 16.1 | 0.00 | 0.00 | 0.00 | 59 | 1013.1 |
| 20260507220316 | 12 | 299 | 9.7 | 16.1 | 0.00 | 0.00 | 0.00 | 59 | 1013.1 |
| 20260507220227 | 12 | 299 | 9.7 | 16.1 | 0.00 | 0.00 | 0.00 | 59 | 1013.1 |
| 20260507220117 | 12 | 299 | 11.3 | 16.1 | 0.00 | 0.00 | 0.00 | 59 | 1013.1 |
| 20260507220029 | 12 | 302 | 11.3 | 16.1 | 0.00 | 0.00 | 0.00 | 59 | 1013.0 |
| 20260507215926 | 12 | 304 | 11.3 | 16.1 | 0.00 | 0.00 | 0.00 | 59 | 1013.0 |
| 20260507215837 | 12 | 303 | 12.9 | 16.1 | 0.00 | 0.00 | 0.00 | 59 | 1013.0 |
| 20260507215729 | 12 | 304 | 12.9 | 16.1 | 0.00 | 0.00 | 0.00 | 59 | 1013.0 |
| 20260507215620 | 12 | 300 | 12.9 | 16.1 | 0.00 | 0.00 | 0.00 | 59 | 1013.0 |
| 20260507215512 | 12 | 304 | 12.9 | 14.5 | 0.00 | 0.00 | 0.00 | 60 | 1013.0 |
| 20260507215425 | 12 | 302 | 12.9 | 14.5 | 0.00 | 0.00 | 0.00 | 59 | 1013.0 |
| 20260507215318 | 12 | 300 | 12.9 | 14.5 | 0.00 | 0.00 | 0.00 | 60 | 1013.0 |
| 20260507215230 | 13 | 306 | 12.9 | 14.5 | 0.00 | 0.00 | 0.00 | 59 | 1013.0 |
| 20260507215123 | 13 | 295 | 12.9 | 14.5 | 0.00 | 0.00 | 0.00 | 59 | 1013.0 |
| 20260507215016 | 13 | 294 | 12.9 | 14.5 | 0.00 | 0.00 | 0.00 | 59 | 1013.0 |
| 20260507214927 | 13 | 298 | 12.9 | 14.5 | 0.00 | 0.00 | 0.00 | 59 | 1013.0 |
| 20260507214823 | 13 | 299 | 12.9 | 14.5 | 0.00 | 0.00 | 0.00 | 59 | 1013.0 |
| 20260507214715 | 13 | 299 | 12.9 | 14.5 | 0.00 | 0.00 | 0.00 | 59 | 1013.0 |
| 20260507214648 | 12 | 298 | 12.9 | 14.5 | 0.00 | 0.00 | 0.00 | 60 | 1013.0 |
| 20260507214519 | 12 | 299 | 12.9 | 14.5 | 0.00 | 0.00 | 0.00 | 60 | 1013.0 |
| 20260507214412 | 12 | 300 | 12.9 | 14.5 | 0.00 | 0.00 | 0.00 | 61 | 1013.0 |
| 20260507214329 | 12 | 301 | 12.9 | 14.5 | 0.00 | 0.00 | 0.00 | 61 | 1013.0 |
| 20260507214222 | 12 | 302 | 12.9 | 14.5 | 0.00 | 0.00 | 0.00 | 62 | 1013.0 |
| 20260507214134 | 12 | 298 | 12.9 | 14.5 | 0.00 | 0.00 | 0.00 | 62 | 1013.1 |
| 20260507214025 | 12 | 301 | 12.9 | 14.5 | 0.00 | 0.00 | 0.00 | 62 | 1013.1 |
| 20260507213915 | 12 | 300 | 12.9 | 14.5 | 0.00 | 0.00 | 0.00 | 62 | 1013.1 |
| 20260507213827 | 12 | 302 | 12.9 | 16.1 | 0.00 | 0.00 | 0.00 | 62 | 1013.1 |
| 20260507213744 | 12 | 304 | 12.9 | 16.1 | 0.00 | 0.00 | 0.00 | 62 | 1013.0 |
| 20260507213615 | 12 | 300 | 12.9 | 16.1 | 0.00 | 0.00 | 0.00 | 62 | 1013.0 |
| 20260507213549 | 12 | 306 | 12.9 | 16.1 | 0.00 | 0.00 | 0.00 | 62 | 1013.0 |
| 20260507213420 | 12 | 304 | 12.9 | 16.1 | 0.00 | 0.00 | 0.00 | 62 | 1013.0 |
| 20260507213313 | 12 | 303 | 12.9 | 16.1 | 0.00 | 0.00 | 0.00 | 62 | 1013.0 |
| 20260507213224 | 12 | 312 | 12.9 | 16.1 | 0.00 | 0.00 | 0.00 | 62 | 1013.0 |
| 20260507213140 | 12 | 307 | 12.9 | 16.1 | 0.00 | 0.00 | 0.00 | 62 | 1013.0 |
| 20260507213012 | 12 | 304 | 12.9 | 16.1 | 0.00 | 0.00 | 0.00 | 62 | 1013.1 |
| 20260507212924 | 12 | 304 | 12.9 | 16.1 | 0.00 | 0.00 | 0.00 | 62 | 1013.1 |
| 20260507212816 | 12 | 306 | 12.9 | 16.1 | 0.00 | 0.00 | 0.00 | 62 | 1013.1 |
| 20260507212749 | 12 | 304 | 12.9 | 16.1 | 0.00 | 0.00 | 0.00 | 63 | 1013.1 |
| 20260507212624 | 12 | 305 | 12.9 | 16.1 | 0.00 | 0.00 | 0.00 | 63 | 1013.1 |
| 20260507212515 | 12 | 303 | 12.9 | 16.1 | 0.00 | 0.00 | 0.00 | 63 | 1013.1 |
| 20260507212427 | 12 | 307 | 12.9 | 16.1 | 0.00 | 0.00 | 0.00 | 63 | 1013.1 |
| 20260507212319 | 12 | 308 | 12.9 | 16.1 | 0.00 | 0.00 | 0.00 | 63 | 1013.1 |
| 20260507212252 | 12 | 302 | 12.9 | 16.1 | 0.00 | 0.00 | 0.00 | 64 | 1013.1 |
| 20260507212123 | 12 | 307 | 12.9 | 16.1 | 0.00 | 0.00 | 0.00 | 63 | 1013.1 |
| 20260507212020 | 12 | 301 | 12.9 | 16.1 | 0.00 | 0.00 | 0.00 | 64 | 1013.0 |
| 20260507211931 | 12 | 299 | 12.9 | 16.1 | 0.00 | 0.00 | 0.00 | 64 | 1013.0 |
| 20260507211843 | 12 | 302 | 12.9 | 16.1 | 0.00 | 0.00 | 0.00 | 64 | 1013.0 |
| 20260507211715 | 12 | 301 | 12.9 | 16.1 | 0.00 | 0.00 | 0.00 | 64 | 1013.1 |
| 20260507211628 | 12 | 300 | 12.9 | 16.1 | 0.00 | 0.00 | 0.00 | 64 | 1013.1 |
| 20260507211525 | 12 | 304 | 12.9 | 16.1 | 0.00 | 0.00 | 0.00 | 64 | 1013.1 |
| 20260507211415 | 12 | 307 | 12.9 | 16.1 | 0.00 | 0.00 | 0.00 | 64 | 1013.1 |
| 20260507211328 | 12 | 306 | 12.9 | 16.1 | 0.00 | 0.00 | 0.00 | 64 | 1013.1 |
| 20260507211221 | 12 | 304 | 12.9 | 16.1 | 0.00 | 0.00 | 0.00 | 64 | 1013.1 |
| 20260507211114 | 12 | 307 | 14.5 | 16.1 | 0.00 | 0.00 | 0.00 | 64 | 1013.2 |
| 20260507211025 | 12 | 304 | 14.5 | 16.1 | 0.00 | 0.00 | 0.00 | 64 | 1013.2 |
| 20260507210921 | 12 | 304 | 14.5 | 16.1 | 0.00 | 0.00 | 0.00 | 64 | 1013.2 |
| 20260507210814 | 12 | 306 | 12.9 | 16.1 | 0.00 | 0.00 | 0.00 | 64 | 1013.2 |
| 20260507210726 | 12 | 303 | 12.9 | 16.1 | 0.00 | 0.00 | 0.00 | 64 | 1013.2 |
| 20260507210619 | 12 | 298 | 12.9 | 16.1 | 0.00 | 0.00 | 0.00 | 64 | 1013.3 |
| 20260507210530 | 12 | 316 | 12.9 | 16.1 | 0.00 | 0.00 | 0.00 | 65 | 1013.3 |
| 20260507210426 | 12 | 313 | 14.5 | 16.1 | 0.00 | 0.00 | 0.00 | 64 | 1013.3 |
| 20260507210339 | 12 | 308 | 12.9 | 16.1 | 0.00 | 0.00 | 0.00 | 64 | 1013.3 |
| 20260507210229 | 12 | 306 | 12.9 | 16.1 | 0.00 | 0.00 | 0.00 | 64 | 1013.3 |
| 20260507210121 | 12 | 302 | 14.5 | 16.1 | 0.00 | 0.00 | 0.00 | 64 | 1013.3 |
| 20260507210012 | 12 | 305 | 12.9 | 16.1 | 0.00 | 0.00 | 0.00 | 64 | 1013.3 |
| 20260507205925 | 12 | 309 | 12.9 | 16.1 | 0.00 | 0.00 | 0.00 | 64 | 1013.3 |
| 20260507205821 | 12 | 302 | 12.9 | 16.1 | 0.00 | 0.00 | 0.00 | 64 | 1013.3 |
| 20260507205714 | 12 | 304 | 12.9 | 16.1 | 0.00 | 0.00 | 0.00 | 63 | 1013.3 |
| 20260507205627 | 12 | 303 | 14.5 | 16.1 | 0.00 | 0.00 | 0.00 | 63 | 1013.3 |
| 20260507205520 | 12 | 306 | 14.5 | 16.1 | 0.00 | 0.00 | 0.00 | 63 | 1013.3 |
| 20260507205412 | 12 | 303 | 14.5 | 16.1 | 0.00 | 0.00 | 0.00 | 62 | 1013.2 |
| 20260507205330 | 12 | 302 | 14.5 | 16.1 | 0.00 | 0.00 | 0.00 | 62 | 1013.2 |
| 20260507205217 | 12 | 300 | 14.5 | 16.1 | 0.00 | 0.00 | 0.00 | 61 | 1013.2 |
| 20260507205127 | 12 | 304 | 14.5 | 16.1 | 0.00 | 0.00 | 0.00 | 62 | 1013.2 |
| 20260507205040 | 12 | 311 | 12.9 | 16.1 | 0.00 | 0.00 | 0.00 | 62 | 1013.2 |
| 20260507204951 | 12 | 301 | 12.9 | 16.1 | 0.00 | 0.00 | 0.00 | 61 | 1013.2 |
| 20260507204823 | 12 | 307 | 11.3 | 14.5 | 0.00 | 0.00 | 0.00 | 62 | 1013.2 |
| 20260507204735 | 12 | 302 | 11.3 | 14.5 | 0.00 | 0.00 | 0.00 | 62 | 1013.2 |
| 20260507204650 | 12 | 314 | 9.7 | 14.5 | 0.00 | 0.00 | 0.00 | 62 | 1013.2 |
| 20260507204522 | 12 | 302 | 9.7 | 14.5 | 0.00 | 0.00 | 0.00 | 62 | 1013.2 |
| 20260507204415 | 12 | 313 | 9.7 | 14.5 | 0.00 | 0.00 | 0.00 | 62 | 1013.2 |
| 20260507204327 | 12 | 316 | 9.7 | 14.5 | 0.00 | 0.00 | 0.00 | 62 | 1013.2 |
| 20260507204220 | 12 | 317 | 9.7 | 14.5 | 0.00 | 0.00 | 0.00 | 63 | 1013.2 |
| 20260507204136 | 12 | 315 | 9.7 | 14.5 | 0.00 | 0.00 | 0.00 | 64 | 1013.1 |
| 20260507204048 | 12 | 315 | 11.3 | 14.5 | 0.00 | 0.00 | 0.00 | 65 | 1013.1 |
| 20260507203920 | 12 | 313 | 11.3 | 14.5 | 0.00 | 0.00 | 0.00 | 66 | 1013.1 |
| 20260507203830 | 12 | 309 | 11.3 | 14.5 | 0.00 | 0.00 | 0.00 | 67 | 1013.1 |
| 20260507203722 | 12 | 308 | 12.9 | 16.1 | 0.00 | 0.00 | 0.00 | 67 | 1013.1 |
| 20260507203636 | 12 | 304 | 12.9 | 16.1 | 0.00 | 0.00 | 0.00 | 67 | 1013.1 |
| 20260507203528 | 12 | 305 | 12.9 | 16.1 | 0.00 | 0.00 | 0.00 | 67 | 1013.1 |
| 20260507203424 | 12 | 304 | 12.9 | 16.1 | 0.00 | 0.00 | 0.00 | 67 | 1013.1 |
| 20260507203317 | 12 | 302 | 12.9 | 16.1 | 0.00 | 0.00 | 0.00 | 67 | 1013.1 |
| 20260507203228 | 12 | 304 | 12.9 | 16.1 | 0.00 | 0.00 | 0.00 | 67 | 1013.1 |
| 20260507203121 | 12 | 296 | 12.9 | 16.1 | 0.00 | 0.00 | 0.00 | 67 | 1013.1 |
| 20260507203017 | 12 | 304 | 12.9 | 16.1 | 0.00 | 0.00 | 0.00 | 67 | 1013.1 |
| 20260507202950 | 12 | 300 | 12.9 | 16.1 | 0.00 | 0.00 | 0.00 | 67 | 1013.1 |
| 20260507202841 | 12 | 299 | 12.9 | 16.1 | 0.00 | 0.00 | 0.00 | 68 | 1013.2 |
| 20260507202751 | 12 | 311 | 14.5 | 16.1 | 0.00 | 0.00 | 0.00 | 68 | 1013.1 |
| 20260507202642 | 12 | 306 | 12.9 | 14.5 | 0.00 | 0.00 | 0.00 | 67 | 1013.2 |
| 20260507202534 | 12 | 308 | 12.9 | 14.5 | 0.00 | 0.00 | 0.00 | 67 | 1013.2 |
| 20260507202425 | 12 | 309 | 11.3 | 14.5 | 0.00 | 0.00 | 0.00 | 67 | 1013.2 |
| 20260507202337 | 12 | 308 | 12.9 | 14.5 | 0.00 | 0.00 | 0.00 | 67 | 1013.2 |
| 20260507202212 | 12 | 309 | 11.3 | 14.5 | 0.00 | 0.00 | 0.00 | 67 | 1013.2 |
| 20260507202125 | 12 | 309 | 11.3 | 14.5 | 0.00 | 0.00 | 0.00 | 66 | 1013.2 |
| 20260507202018 | 12 | 313 | 11.3 | 14.5 | 0.00 | 0.00 | 0.00 | 66 | 1013.2 |
| 20260507201930 | 12 | 312 | 11.3 | 14.5 | 0.00 | 0.00 | 0.00 | 66 | 1013.3 |
| 20260507201823 | 12 | 309 | 12.9 | 14.5 | 0.00 | 0.00 | 0.00 | 65 | 1013.3 |
| 20260507201720 | 12 | 309 | 11.3 | 14.5 | 0.00 | 0.00 | 0.00 | 65 | 1013.3 |
| 20260507201613 | 12 | 313 | 11.3 | 14.5 | 0.00 | 0.00 | 0.00 | 65 | 1013.3 |
| 20260507201525 | 12 | 309 | 11.3 | 14.5 | 0.00 | 0.00 | 0.00 | 64 | 1013.3 |
| 20260507201418 | 13 | 306 | 9.7 | 14.5 | 0.00 | 0.00 | 0.00 | 65 | 1013.3 |
| 20260507201329 | 13 | 317 | 8.0 | 14.5 | 0.00 | 0.00 | 0.00 | 64 | 1013.3 |
| 20260507201224 | 13 | 327 | 8.0 | 14.5 | 0.00 | 0.00 | 0.00 | 63 | 1013.4 |
| 20260507201117 | 13 | 321 | 6.4 | 14.5 | 0.00 | 0.00 | 0.00 | 63 | 1013.3 |
| 20260507201030 | 13 | 321 | 6.4 | 14.5 | 0.00 | 0.00 | 0.00 | 62 | 1013.3 |
| 20260507200923 | 12 | 319 | 8.0 | 14.5 | 0.00 | 0.00 | 0.00 | 63 | 1013.3 |
| 20260507200816 | 12 | 323 | 8.0 | 14.5 | 0.00 | 0.00 | 0.00 | 62 | 1013.3 |
| 20260507200733 | 12 | 320 | 9.7 | 14.5 | 0.00 | 0.00 | 0.00 | 65 | 1013.3 |
| 20260507200623 | 12 | 331 | 9.7 | 14.5 | 0.00 | 0.00 | 0.00 | 65 | 1013.3 |
| 20260507200515 | 12 | 307 | 8.0 | 14.5 | 0.00 | 0.00 | 0.00 | 65 | 1013.3 |
| 20260507200426 | 12 | 309 | 9.7 | 14.5 | 0.00 | 0.00 | 0.00 | 65 | 1013.3 |
| 20260507200320 | 12 | 315 | 9.7 | 14.5 | 0.00 | 0.00 | 0.00 | 63 | 1013.3 |
| 20260507200212 | 12 | 306 | 8.0 | 14.5 | 0.00 | 0.00 | 0.00 | 62 | 1013.3 |
| 20260507200149 | 12 | 315 | 8.0 | 14.5 | 0.00 | 0.00 | 0.00 | 62 | 1013.3 |
| 20260507200021 | 12 | 309 | 9.7 | 14.5 | 0.00 | 0.00 | 0.00 | 62 | 1013.3 |
| 20260507195913 | 13 | 303 | 11.3 | 14.5 | 0.00 | 0.00 | 0.00 | 59 | 1013.4 |
| 20260507195825 | 13 | 302 | 11.3 | 14.5 | 0.00 | 0.00 | 0.00 | 57 | 1013.4 |
| 20260507195718 | 13 | 301 | 11.3 | 14.5 | 0.00 | 0.00 | 0.00 | 56 | 1013.3 |
| 20260507195613 | 13 | 297 | 9.7 | 12.9 | 0.00 | 0.00 | 0.00 | 57 | 1013.3 |
| 20260507195525 | 13 | 296 | 9.7 | 12.9 | 0.00 | 0.00 | 0.00 | 58 | 1013.3 |
| 20260507195418 | 13 | 303 | 11.3 | 12.9 | 0.00 | 0.00 | 0.00 | 60 | 1013.3 |
| 20260507195329 | 13 | 305 | 11.3 | 12.9 | 0.00 | 0.00 | 0.00 | 60 | 1013.3 |
| 20260507195222 | 13 | 301 | 11.3 | 12.9 | 0.00 | 0.00 | 0.00 | 60 | 1013.3 |
| 20260507195112 | 13 | 300 | 11.3 | 12.9 | 0.00 | 0.00 | 0.00 | 60 | 1013.3 |
| 20260507195028 | 13 | 300 | 11.3 | 12.9 | 0.00 | 0.00 | 0.00 | 62 | 1013.3 |
| 20260507194921 | 12 | 309 | 11.3 | 12.9 | 0.00 | 0.00 | 0.00 | 61 | 1013.3 |
| 20260507194813 | 12 | 309 | 11.3 | 12.9 | 0.00 | 0.00 | 0.00 | 62 | 1013.3 |
| 20260507194746 | 12 | 304 | 11.3 | 12.9 | 0.00 | 0.00 | 0.00 | 61 | 1013.3 |
| 20260507194618 | 12 | 315 | 9.7 | 12.9 | 0.00 | 0.00 | 0.00 | 61 | 1013.4 |
| 20260507194513 | 12 | 307 | 9.7 | 12.9 | 0.00 | 0.00 | 0.00 | 61 | 1013.4 |
| 20260507194447 | 12 | 303 | 8.0 | 12.9 | 0.00 | 0.00 | 0.00 | 62 | 1013.4 |
| 20260507194319 | 12 | 298 | 8.0 | 11.3 | 0.00 | 0.00 | 0.00 | 62 | 1013.4 |
| 20260507194231 | 13 | 298 | 8.0 | 11.3 | 0.00 | 0.00 | 0.00 | 62 | 1013.4 |
| 20260507194125 | 13 | 297 | 6.4 | 11.3 | 0.00 | 0.00 | 0.00 | 61 | 1013.3 |
| 20260507194016 | 13 | 296 | 4.8 | 11.3 | 0.00 | 0.00 | 0.00 | 61 | 1013.4 |
| 20260507193929 | 13 | 294 | 3.2 | 8.0 | 0.00 | 0.00 | 0.00 | 61 | 1013.4 |
| 20260507193822 | 13 | 294 | 3.2 | 8.0 | 0.00 | 0.00 | 0.00 | 61 | 1013.4 |
| 20260507193712 | 13 | 297 | 4.8 | 8.0 | 0.00 | 0.00 | 0.00 | 60 | 1013.3 |
| 20260507193625 | 13 | 297 | 6.4 | 8.0 | 0.00 | 0.00 | 0.00 | 60 | 1013.3 |
| 20260507193537 | 13 | 297 | 6.4 | 8.0 | 0.00 | 0.00 | 0.00 | 59 | 1013.3 |
| 20260507193413 | 13 | 297 | 6.4 | 8.0 | 0.00 | 0.00 | 0.00 | 59 | 1013.3 |
| 20260507193326 | 13 | 297 | 4.8 | 8.0 | 0.00 | 0.00 | 0.00 | 60 | 1013.3 |
| 20260507193218 | 13 | 295 | 3.2 | 8.0 | 0.00 | 0.00 | 0.00 | 60 | 1013.2 |
| 20260507193130 | 13 | 295 | 3.2 | 9.7 | 0.00 | 0.00 | 0.00 | 60 | 1013.2 |
| 20260507193042 | 13 | 295 | 4.8 | 9.7 | 0.00 | 0.00 | 0.00 | 61 | 1013.2 |
| 20260507192918 | 13 | 294 | 6.4 | 9.7 | 0.00 | 0.00 | 0.00 | 61 | 1013.2 |
| 20260507192830 | 13 | 296 | 6.4 | 9.7 | 0.00 | 0.00 | 0.00 | 61 | 1013.2 |
| 20260507192721 | 13 | 298 | 6.4 | 9.7 | 0.00 | 0.00 | 0.00 | 61 | 1013.2 |
| 20260507192613 | 13 | 299 | 6.4 | 12.9 | 0.00 | 0.00 | 0.00 | 61 | 1013.2 |
| 20260507192526 | 13 | 299 | 6.4 | 12.9 | 0.00 | 0.00 | 0.00 | 61 | 1013.2 |
| 20260507192423 | 12 | 299 | 6.4 | 12.9 | 0.00 | 0.00 | 0.00 | 61 | 1013.2 |
| 20260507192334 | 12 | 299 | 6.4 | 12.9 | 0.00 | 0.00 | 0.00 | 63 | 1013.2 |
| 20260507192226 | 12 | 299 | 8.0 | 12.9 | 0.00 | 0.00 | 0.00 | 62 | 1013.2 |
| 20260507192139 | 12 | 299 | 8.0 | 12.9 | 0.00 | 0.00 | 0.00 | 63 | 1013.2 |
| 20260507192051 | 12 | 299 | 9.7 | 12.9 | 0.00 | 0.00 | 0.00 | 63 | 1013.2 |
| 20260507191921 | 12 | 297 | 8.0 | 12.9 | 0.00 | 0.00 | 0.00 | 63 | 1013.2 |
| 20260507191833 | 12 | 298 | 9.7 | 12.9 | 0.00 | 0.00 | 0.00 | 62 | 1013.2 |
| 20260507191748 | 12 | 307 | 11.3 | 12.9 | 0.00 | 0.00 | 0.00 | 61 | 1013.2 |
| 20260507191619 | 12 | 304 | 11.3 | 12.9 | 0.00 | 0.00 | 0.00 | 60 | 1013.1 |
| 20260507191531 | 12 | 306 | 11.3 | 12.9 | 0.00 | 0.00 | 0.00 | 61 | 1013.1 |
| 20260507191422 | 12 | 304 | 11.3 | 12.9 | 0.00 | 0.00 | 0.00 | 61 | 1013.1 |
| 20260507191315 | 13 | 306 | 11.3 | 12.9 | 0.00 | 0.00 | 0.00 | 62 | 1013.1 |
| 20260507191227 | 13 | 310 | 9.7 | 12.9 | 0.00 | 0.00 | 0.00 | 61 | 1013.1 |
| 20260507191124 | 13 | 307 | 6.4 | 12.9 | 0.00 | 0.00 | 0.00 | 61 | 1013.1 |
| 20260507191015 | 13 | 307 | 6.4 | 12.9 | 0.00 | 0.00 | 0.00 | 62 | 1013.1 |
| 20260507190928 | 13 | 323 | 6.4 | 12.9 | 0.00 | 0.00 | 0.00 | 62 | 1013.1 |
| 20260507190820 | 13 | 331 | 9.7 | 12.9 | 0.00 | 0.00 | 0.00 | 63 | 1013.1 |
| 20260507190715 | 13 | 309 | 9.7 | 12.9 | 0.00 | 0.00 | 0.00 | 62 | 1013.0 |
| 20260507190647 | 13 | 312 | 9.7 | 12.9 | 0.00 | 0.00 | 0.00 | 62 | 1013.0 |
| 20260507190518 | 13 | 300 | 8.0 | 11.3 | 0.00 | 0.00 | 0.00 | 62 | 1013.0 |
| 20260507190429 | 13 | 296 | 6.4 | 11.3 | 0.00 | 0.00 | 0.00 | 60 | 1012.9 |
| 20260507190342 | 13 | 291 | 4.8 | 11.3 | 0.00 | 0.00 | 0.00 | 60 | 1012.9 |
| 20260507190213 | 13 | 284 | 3.2 | 9.7 | 0.00 | 0.00 | 0.00 | 60 | 1012.9 |
| 20260507190145 | 13 | 284 | 3.2 | 6.4 | 0.00 | 0.00 | 0.00 | 61 | 1012.9 |
| 20260507190021 | 13 | 284 | 3.2 | 6.4 | 0.00 | 0.00 | 0.00 | 60 | 1012.9 |
| 20260507185912 | 13 | 284 | 3.2 | 6.4 | 0.00 | 0.00 | 0.00 | 60 | 1012.9 |
| 20260507185825 | 13 | 284 | 4.8 | 8.0 | 0.00 | 0.00 | 0.00 | 60 | 1012.9 |
| 20260507185737 | 13 | 284 | 3.2 | 8.0 | 0.00 | 0.00 | 0.00 | 59 | 1012.9 |
| 20260507185648 | 13 | 284 | 3.2 | 8.0 | 0.00 | 0.00 | 0.00 | 59 | 1012.9 |
| 20260507185539 | 13 | 284 | 1.6 | 8.0 | 0.00 | 0.00 | 0.00 | 59 | 1012.9 |
| 20260507185414 | 13 | 284 | 1.6 | 8.0 | 0.00 | 0.00 | 0.00 | 58 | 1012.9 |
| 20260507185326 | 13 | 284 | 1.6 | 8.0 | 0.00 | 0.00 | 0.00 | 56 | 1012.9 |
| 20260507185218 | 14 | 284 | 3.2 | 8.0 | 0.00 | 0.00 | 0.00 | 56 | 1012.9 |
| 20260507185131 | 14 | 284 | 3.2 | 8.0 | 0.00 | 0.00 | 0.00 | 56 | 1012.9 |
| 20260507185023 | 14 | 284 | 4.8 | 11.3 | 0.00 | 0.00 | 0.00 | 56 | 1012.8 |
| 20260507184915 | 14 | 284 | 4.8 | 11.3 | 0.00 | 0.00 | 0.00 | 56 | 1012.9 |
| 20260507184831 | 14 | 284 | 4.8 | 11.3 | 0.00 | 0.00 | 0.00 | 57 | 1012.9 |
| 20260507184723 | 14 | 279 | 4.8 | 11.3 | 0.00 | 0.00 | 0.00 | 56 | 1012.8 |
| 20260507184613 | 14 | 279 | 6.4 | 12.9 | 0.00 | 0.00 | 0.00 | 56 | 1012.9 |
| 20260507184525 | 14 | 279 | 6.4 | 12.9 | 0.00 | 0.00 | 0.00 | 57 | 1012.9 |
| 20260507184438 | 14 | 279 | 6.4 | 12.9 | 0.00 | 0.00 | 0.00 | 57 | 1012.8 |
| 20260507184312 | 14 | 278 | 6.4 | 12.9 | 0.00 | 0.00 | 0.00 | 58 | 1012.9 |
| 20260507184225 | 14 | 278 | 8.0 | 12.9 | 0.00 | 0.00 | 0.00 | 59 | 1012.9 |
| 20260507184117 | 13 | 278 | 8.0 | 12.9 | 0.00 | 0.00 | 0.00 | 61 | 1012.8 |
| 20260507184030 | 13 | 287 | 9.7 | 12.9 | 0.00 | 0.00 | 0.00 | 62 | 1012.8 |
| 20260507183941 | 13 | 294 | 9.7 | 12.9 | 0.00 | 0.00 | 0.00 | 63 | 1012.8 |
| 20260507183813 | 13 | 283 | 9.7 | 12.9 | 0.00 | 0.00 | 0.00 | 64 | 1012.8 |
| 20260507183730 | 13 | 285 | 11.3 | 12.9 | 0.00 | 0.00 | 0.00 | 65 | 1012.8 |
| 20260507183622 | 14 | 287 | 11.3 | 12.9 | 0.00 | 0.00 | 0.00 | 65 | 1012.9 |
| 20260507183513 | 14 | 286 | 9.7 | 11.3 | 0.00 | 0.00 | 0.00 | 65 | 1012.8 |
| 20260507183426 | 14 | 286 | 9.7 | 11.3 | 0.00 | 0.00 | 0.00 | 64 | 1012.8 |
| 20260507183318 | 14 | 283 | 9.7 | 11.3 | 0.00 | 0.00 | 0.00 | 63 | 1012.8 |
| 20260507183212 | 14 | 283 | 9.7 | 11.3 | 0.00 | 0.00 | 0.00 | 63 | 1012.8 |
| 20260507183146 | 14 | 282 | 9.7 | 12.9 | 0.00 | 0.00 | 0.00 | 63 | 1012.8 |
| 20260507183016 | 15 | 284 | 9.7 | 12.9 | 0.00 | 0.00 | 0.00 | 63 | 1012.7 |
| 20260507182928 | 15 | 284 | 9.7 | 12.9 | 0.00 | 0.00 | 0.00 | 62 | 1012.7 |
| 20260507182819 | 15 | 284 | 8.0 | 12.9 | 0.00 | 0.00 | 0.00 | 62 | 1012.7 |
| 20260507182714 | 15 | 277 | 8.0 | 12.9 | 0.00 | 0.00 | 0.00 | 61 | 1012.8 |
| 20260507182648 | 15 | 276 | 6.4 | 12.9 | 0.00 | 0.00 | 0.00 | 61 | 1012.8 |
| 20260507182538 | 15 | 274 | 6.4 | 12.9 | 0.00 | 0.00 | 0.00 | 61 | 1012.8 |
| 20260507182429 | 15 | 275 | 6.4 | 12.9 | 0.00 | 0.00 | 0.00 | 61 | 1012.8 |
| 20260507182319 | 15 | 275 | 8.0 | 14.5 | 0.00 | 0.00 | 0.00 | 61 | 1012.8 |
| 20260507182231 | 15 | 275 | 8.0 | 14.5 | 0.00 | 0.00 | 0.00 | 61 | 1012.8 |
| 20260507182121 | 15 | 268 | 8.0 | 14.5 | 0.00 | 0.00 | 0.00 | 61 | 1012.8 |
| 20260507182038 | 15 | 269 | 8.0 | 14.5 | 0.00 | 0.00 | 0.00 | 61 | 1012.9 |
| 20260507181929 | 15 | 263 | 8.0 | 14.5 | 0.00 | 0.00 | 0.00 | 62 | 1012.9 |
| 20260507181821 | 15 | 265 | 8.0 | 14.5 | 0.00 | 0.00 | 0.00 | 62 | 1012.9 |
| 20260507181731 | 15 | 265 | 9.7 | 14.5 | 0.00 | 0.00 | 0.00 | 62 | 1012.8 |
| 20260507181622 | 15 | 279 | 8.0 | 16.1 | 0.00 | 0.00 | 0.00 | 62 | 1012.8 |
| 20260507181515 | 15 | 266 | 9.7 | 16.1 | 0.00 | 0.00 | 0.00 | 62 | 1012.8 |
| 20260507181431 | 15 | 269 | 9.7 | 16.1 | 0.00 | 0.00 | 0.00 | 62 | 1012.8 |
| 20260507181322 | 15 | 279 | 9.7 | 16.1 | 0.00 | 0.00 | 0.00 | 63 | 1012.8 |
| 20260507181215 | 15 | 269 | 9.7 | 16.1 | 0.00 | 0.00 | 0.00 | 63 | 1012.8 |
| 20260507181127 | 15 | 271 | 9.7 | 16.1 | 0.00 | 0.00 | 0.00 | 63 | 1012.8 |
| 20260507181039 | 15 | 275 | 9.7 | 16.1 | 0.00 | 0.00 | 0.00 | 63 | 1012.8 |
| 20260507180933 | 15 | 265 | 9.7 | 16.1 | 0.00 | 0.00 | 0.00 | 63 | 1012.7 |
| 20260507180820 | 15 | 269 | 11.3 | 16.1 | 0.00 | 0.00 | 0.00 | 63 | 1012.8 |
| 20260507180730 | 15 | 266 | 11.3 | 16.1 | 0.00 | 0.00 | 0.00 | 63 | 1012.7 |
| 20260507180623 | 15 | 267 | 9.7 | 12.9 | 0.00 | 0.00 | 0.00 | 64 | 1012.8 |
| 20260507180513 | 15 | 265 | 9.7 | 12.9 | 0.00 | 0.00 | 0.00 | 65 | 1012.8 |
| 20260507180446 | 15 | 260 | 8.0 | 12.9 | 0.00 | 0.00 | 0.00 | 65 | 1012.8 |
| 20260507180314 | 15 | 254 | 9.7 | 14.5 | 0.00 | 0.00 | 0.00 | 65 | 1012.8 |
| 20260507180226 | 15 | 255 | 8.0 | 14.5 | 0.00 | 0.00 | 0.00 | 64 | 1012.8 |
| 20260507180114 | 15 | 257 | 6.4 | 16.1 | 0.00 | 0.00 | 0.00 | 67 | 1012.8 |
| 20260507180027 | 15 | 271 | 4.8 | 16.1 | 0.00 | 0.00 | 0.00 | 65 | 1012.8 |
| 20260507175918 | 15 | 279 | 6.4 | 16.1 | 0.00 | 0.00 | 0.00 | 64 | 1012.7 |
| 20260507175829 | 15 | 279 | 8.0 | 16.1 | 0.00 | 0.00 | 0.00 | 64 | 1012.7 |
| 20260507175719 | 15 | 271 | 8.0 | 16.1 | 0.00 | 0.00 | 0.00 | 64 | 1012.7 |
| 20260507175616 | 15 | 271 | 8.0 | 16.1 | 0.00 | 0.00 | 0.00 | 64 | 1012.7 |
| 20260507175549 | 15 | 273 | 8.0 | 16.1 | 0.00 | 0.00 | 0.00 | 64 | 1012.7 |
| 20260507175417 | 15 | 273 | 9.7 | 16.1 | 0.00 | 0.00 | 0.00 | 64 | 1012.6 |
| 20260507175326 | 15 | 275 | 11.3 | 16.1 | 0.00 | 0.00 | 0.00 | 65 | 1012.6 |
| 20260507175217 | 15 | 260 | 11.3 | 16.1 | 0.00 | 0.00 | 0.00 | 65 | 1012.6 |
| 20260507175127 | 15 | 272 | 11.3 | 16.1 | 0.00 | 0.00 | 0.00 | 65 | 1012.6 |
| 20260507175023 | 15 | 275 | 9.7 | 16.1 | 0.00 | 0.00 | 0.00 | 66 | 1012.6 |
| 20260507174913 | 15 | 273 | 9.7 | 16.1 | 0.00 | 0.00 | 0.00 | 66 | 1012.6 |
| 20260507174824 | 15 | 266 | 8.0 | 16.1 | 0.00 | 0.00 | 0.00 | 67 | 1012.6 |
| 20260507174736 | 15 | 279 | 8.0 | 16.1 | 0.00 | 0.00 | 0.00 | 67 | 1012.5 |
| 20260507174626 | 15 | 268 | 8.0 | 16.1 | 0.00 | 0.00 | 0.00 | 68 | 1012.5 |
| 20260507174539 | 15 | 261 | 9.7 | 19.3 | 0.00 | 0.00 | 0.00 | 67 | 1012.5 |
| 20260507174413 | 15 | 262 | 11.3 | 19.3 | 0.00 | 0.00 | 0.00 | 67 | 1012.6 |
| 20260507174324 | 15 | 260 | 11.3 | 19.3 | 0.00 | 0.00 | 0.00 | 67 | 1012.6 |
| 20260507174216 | 15 | 266 | 11.3 | 19.3 | 0.00 | 0.00 | 0.00 | 67 | 1012.6 |
| 20260507174127 | 15 | 290 | 9.7 | 19.3 | 0.00 | 0.00 | 0.00 | 67 | 1012.6 |
| 20260507174020 | 15 | 259 | 8.0 | 19.3 | 0.00 | 0.00 | 0.00 | 67 | 1012.6 |
| 20260507173914 | 15 | 271 | 9.7 | 19.3 | 0.00 | 0.00 | 0.00 | 67 | 1012.5 |
| 20260507173826 | 15 | 273 | 9.7 | 19.3 | 0.00 | 0.00 | 0.00 | 67 | 1012.5 |
| 20260507173718 | 15 | 273 | 12.9 | 19.3 | 0.00 | 0.00 | 0.00 | 67 | 1012.6 |
| 20260507173630 | 15 | 267 | 12.9 | 19.3 | 0.00 | 0.00 | 0.00 | 67 | 1012.6 |
| 20260507173542 | 15 | 266 | 11.3 | 19.3 | 0.00 | 0.00 | 0.00 | 67 | 1012.6 |
| 20260507173417 | 15 | 271 | 11.3 | 19.3 | 0.00 | 0.00 | 0.00 | 66 | 1012.6 |
| 20260507173327 | 15 | 270 | 11.3 | 19.3 | 0.00 | 0.00 | 0.00 | 66 | 1012.6 |
| 20260507173218 | 15 | 254 | 12.9 | 19.3 | 0.00 | 0.00 | 0.00 | 66 | 1012.5 |
| 20260507173130 | 15 | 275 | 12.9 | 19.3 | 0.00 | 0.00 | 0.00 | 66 | 1012.4 |
| 20260507173022 | 15 | 270 | 12.9 | 19.3 | 0.00 | 0.00 | 0.00 | 66 | 1012.4 |
| 20260507172953 | 15 | 267 | 12.9 | 19.3 | 0.00 | 0.00 | 0.00 | 67 | 1012.4 |
| 20260507172827 | 15 | 257 | 11.3 | 17.7 | 0.00 | 0.00 | 0.00 | 67 | 1012.4 |
| 20260507172719 | 15 | 273 | 11.3 | 17.7 | 0.00 | 0.00 | 0.00 | 67 | 1012.4 |
| 20260507172623 | 15 | 259 | 11.3 | 17.7 | 0.00 | 0.00 | 0.00 | 66 | 1012.3 |
| 20260507172516 | 15 | 265 | 11.3 | 19.3 | 0.00 | 0.00 | 0.00 | 66 | 1012.3 |
| 20260507172446 | 15 | 243 | 9.7 | 19.3 | 0.00 | 0.00 | 0.00 | 67 | 1012.3 |
| 20260507172315 | 15 | 257 | 8.0 | 19.3 | 0.00 | 0.00 | 0.00 | 66 | 1012.2 |
| 20260507172231 | 15 | 267 | 9.7 | 19.3 | 0.00 | 0.00 | 0.00 | 66 | 1012.2 |
| 20260507172142 | 15 | 271 | 8.0 | 19.3 | 0.00 | 0.00 | 0.00 | 66 | 1012.3 |
| 20260507172012 | 15 | 263 | 9.7 | 19.3 | 0.00 | 0.00 | 0.00 | 66 | 1012.3 |
| 20260507171925 | 15 | 259 | 11.3 | 19.3 | 0.00 | 0.00 | 0.00 | 66 | 1012.3 |
| 20260507171817 | 15 | 260 | 12.9 | 19.3 | 0.00 | 0.00 | 0.00 | 66 | 1012.3 |
| 20260507171749 | 15 | 261 | 11.3 | 19.3 | 0.00 | 0.00 | 0.00 | 67 | 1012.3 |
| 20260507171623 | 15 | 259 | 12.9 | 19.3 | 0.00 | 0.00 | 0.00 | 67 | 1012.3 |
| 20260507171514 | 15 | 273 | 9.7 | 17.7 | 0.00 | 0.00 | 0.00 | 67 | 1012.3 |
| 20260507171423 | 15 | 279 | 8.0 | 17.7 | 0.00 | 0.00 | 0.00 | 67 | 1012.3 |
| 20260507171316 | 15 | 262 | 8.0 | 17.7 | 0.00 | 0.00 | 0.00 | 67 | 1012.4 |
| 20260507171247 | 15 | 251 | 8.0 | 17.7 | 0.00 | 0.00 | 0.00 | 67 | 1012.4 |
| 20260507171115 | 15 | 267 | 8.0 | 17.7 | 0.00 | 0.00 | 0.00 | 68 | 1012.3 |
| 20260507171026 | 15 | 259 | 9.7 | 17.7 | 0.00 | 0.00 | 0.00 | 66 | 1012.3 |
| 20260507170922 | 15 | 302 | 11.3 | 17.7 | 0.00 | 0.00 | 0.00 | 66 | 1012.4 |
| 20260507170813 | 15 | 261 | 11.3 | 17.7 | 0.00 | 0.00 | 0.00 | 66 | 1012.4 |
| 20260507170723 | 15 | 236 | 11.3 | 17.7 | 0.00 | 0.00 | 0.00 | 66 | 1012.4 |
| 20260507170614 | 15 | 271 | 8.0 | 17.7 | 0.00 | 0.00 | 0.00 | 67 | 1012.4 |
| 20260507170525 | 15 | 248 | 8.0 | 14.5 | 0.00 | 0.00 | 0.00 | 66 | 1012.4 |
| 20260507170421 | 15 | 207 | 9.7 | 14.5 | 0.00 | 0.00 | 0.00 | 66 | 1012.4 |
| 20260507170331 | 15 | 225 | 9.7 | 16.1 | 0.00 | 0.00 | 0.00 | 67 | 1012.4 |
| 20260507170222 | 15 | 281 | 8.0 | 16.1 | 0.00 | 0.00 | 0.00 | 68 | 1012.4 |
| 20260507170113 | 15 | 222 | 8.0 | 17.7 | 0.00 | 0.00 | 0.00 | 67 | 1012.4 |
| 20260507170025 | 16 | 257 | 8.0 | 17.7 | 0.00 | 0.00 | 0.00 | 67 | 1012.4 |
| 20260507165917 | 16 | 244 | 8.0 | 17.7 | 0.00 | 0.00 | 0.00 | 67 | 1012.4 |
| 20260507165813 | 16 | 234 | 6.4 | 17.7 | 0.00 | 0.00 | 0.00 | 67 | 1012.4 |
| 20260507165723 | 16 | 267 | 6.4 | 17.7 | 0.00 | 0.00 | 0.00 | 67 | 1012.4 |
| 20260507165615 | 16 | 248 | 9.7 | 17.7 | 0.00 | 0.00 | 0.00 | 67 | 1012.4 |
| 20260507165527 | 16 | 263 | 11.3 | 17.7 | 0.00 | 0.00 | 0.00 | 67 | 1012.4 |
| 20260507165419 | 16 | 215 | 11.3 | 17.7 | 0.00 | 0.00 | 0.00 | 66 | 1012.4 |
| 20260507165315 | 16 | 225 | 11.3 | 17.7 | 0.00 | 0.00 | 0.00 | 67 | 1012.4 |
| 20260507165227 | 16 | 187 | 11.3 | 17.7 | 0.00 | 0.00 | 0.00 | 66 | 1012.4 |
| 20260507165118 | 16 | 219 | 8.0 | 12.9 | 0.00 | 0.00 | 0.00 | 66 | 1012.4 |
| 20260507165031 | 16 | 190 | 6.4 | 12.9 | 0.00 | 0.00 | 0.00 | 68 | 1012.4 |
| 20260507164923 | 16 | 234 | 4.8 | 11.3 | 0.00 | 0.00 | 0.00 | 68 | 1012.4 |
| 20260507164819 | 16 | 207 | 3.2 | 16.1 | 0.00 | 0.00 | 0.00 | 68 | 1012.4 |
| 20260507164731 | 16 | 206 | 1.6 | 17.7 | 0.00 | 0.00 | 0.00 | 67 | 1012.4 |
| 20260507164624 | 16 | 205 | 3.2 | 17.7 | 0.00 | 0.00 | 0.00 | 67 | 1012.4 |
| 20260507164516 | 16 | 206 | 4.8 | 17.7 | 0.00 | 0.00 | 0.00 | 66 | 1012.4 |
| 20260507164427 | 16 | 206 | 4.8 | 17.7 | 0.00 | 0.00 | 0.00 | 65 | 1012.4 |
| 20260507164341 | 16 | 196 | 6.4 | 17.7 | 0.00 | 0.00 | 0.00 | 64 | 1012.4 |
| 20260507164232 | 16 | 263 | 8.0 | 17.7 | 0.00 | 0.00 | 0.00 | 64 | 1012.4 |
| 20260507164123 | 16 | 275 | 8.0 | 17.7 | 0.00 | 0.00 | 0.00 | 64 | 1012.4 |
| 20260507164015 | 16 | 271 | 9.7 | 24.1 | 0.00 | 0.00 | 0.00 | 64 | 1012.4 |
| 20260507163927 | 16 | 277 | 12.9 | 24.1 | 0.00 | 0.00 | 0.00 | 64 | 1012.4 |
| 20260507163822 | 16 | 238 | 12.9 | 24.1 | 0.00 | 0.00 | 0.00 | 64 | 1012.4 |
| 20260507163734 | 16 | 218 | 11.3 | 24.1 | 0.00 | 0.00 | 0.00 | 63 | 1012.4 |
| 20260507163624 | 16 | 210 | 11.3 | 24.1 | 0.00 | 0.00 | 0.00 | 63 | 1012.4 |
| 20260507163517 | 16 | 231 | 9.7 | 24.1 | 0.00 | 0.00 | 0.00 | 63 | 1012.4 |
| 20260507163429 | 16 | 244 | 8.0 | 24.1 | 0.00 | 0.00 | 0.00 | 63 | 1012.4 |
| 20260507163342 | 16 | 254 | 9.7 | 24.1 | 0.00 | 0.00 | 0.00 | 63 | 1012.4 |
| 20260507163216 | 16 | 213 | 11.3 | 24.1 | 0.00 | 0.00 | 0.00 | 63 | 1012.4 |
| 20260507163148 | 17 | 240 | 11.3 | 24.1 | 0.00 | 0.00 | 0.00 | 62 | 1012.4 |
| 20260507163018 | 17 | 234 | 9.7 | 22.5 | 0.00 | 0.00 | 0.00 | 62 | 1012.5 |
| 20260507162950 | 17 | 259 | 9.7 | 22.5 | 0.00 | 0.00 | 0.00 | 62 | 1012.4 |
| 20260507162821 | 17 | 229 | 9.7 | 22.5 | 0.00 | 0.00 | 0.00 | 62 | 1012.4 |
| 20260507162713 | 17 | 184 | 9.7 | 22.5 | 0.00 | 0.00 | 0.00 | 61 | 1012.4 |
| 20260507162645 | 17 | 165 | 11.3 | 22.5 | 0.00 | 0.00 | 0.00 | 61 | 1012.4 |
| 20260507162520 | 17 | 232 | 9.7 | 22.5 | 0.00 | 0.00 | 0.00 | 62 | 1012.4 |
| 20260507162452 | 17 | 227 | 9.7 | 16.1 | 0.00 | 0.00 | 0.00 | 62 | 1012.4 |
| 20260507162344 | 17 | 254 | 11.3 | 16.1 | 0.00 | 0.00 | 0.00 | 62 | 1012.4 |
| 20260507162232 | 17 | 229 | 11.3 | 17.7 | 0.00 | 0.00 | 0.00 | 61 | 1012.3 |
| 20260507162125 | 17 | 188 | 9.7 | 16.1 | 0.00 | 0.00 | 0.00 | 61 | 1012.3 |
| 20260507162014 | 17 | 216 | 8.0 | 17.7 | 0.00 | 0.00 | 0.00 | 61 | 1012.3 |
| 20260507161930 | 17 | 191 | 9.7 | 17.7 | 0.00 | 0.00 | 0.00 | 61 | 1012.3 |
| 20260507161842 | 17 | 248 | 9.7 | 17.7 | 0.00 | 0.00 | 0.00 | 61 | 1012.4 |
| 20260507161712 | 17 | 223 | 8.0 | 17.7 | 0.00 | 0.00 | 0.00 | 61 | 1012.4 |
| 20260507161625 | 17 | 187 | 6.4 | 17.7 | 0.00 | 0.00 | 0.00 | 61 | 1012.4 |
| 20260507161516 | 17 | 187 | 8.0 | 24.1 | 0.00 | 0.00 | 0.00 | 61 | 1012.3 |
| 20260507161448 | 17 | 220 | 9.7 | 24.1 | 0.00 | 0.00 | 0.00 | 61 | 1012.3 |
| 20260507161343 | 17 | 219 | 9.7 | 24.1 | 0.00 | 0.00 | 0.00 | 61 | 1012.3 |
| 20260507161251 | 17 | 220 | 11.3 | 24.1 | 0.00 | 0.00 | 0.00 | 61 | 1012.4 |
| 20260507161120 | 17 | 184 | 11.3 | 24.1 | 0.00 | 0.00 | 0.00 | 61 | 1012.3 |
| 20260507161052 | 17 | 190 | 9.7 | 24.1 | 0.00 | 0.00 | 0.00 | 60 | 1012.3 |
| 20260507160942 | 17 | 200 | 8.0 | 24.1 | 0.00 | 0.00 | 0.00 | 61 | 1012.3 |
| 20260507160852 | 17 | 189 | 8.0 | 24.1 | 0.00 | 0.00 | 0.00 | 61 | 1012.3 |
| 20260507160722 | 17 | 208 | 11.3 | 24.1 | 0.00 | 0.00 | 0.00 | 60 | 1012.3 |
| 20260507160618 | 17 | 239 | 14.5 | 22.5 | 0.00 | 0.00 | 0.00 | 60 | 1012.2 |
| 20260507160529 | 17 | 186 | 12.9 | 22.5 | 0.00 | 0.00 | 0.00 | 60 | 1012.2 |
| 20260507160422 | 17 | 188 | 14.5 | 22.5 | 0.00 | 0.00 | 0.00 | 60 | 1012.2 |
| 20260507160353 | 17 | 180 | 12.9 | 22.5 | 0.00 | 0.00 | 0.00 | 60 | 1012.2 |
| 20260507160223 | 17 | 205 | 12.9 | 22.5 | 0.00 | 0.00 | 0.00 | 60 | 1012.3 |
| 20260507160120 | 17 | 193 | 12.9 | 27.4 | 0.00 | 0.00 | 0.00 | 59 | 1012.3 |
| 20260507160030 | 17 | 186 | 12.9 | 27.4 | 0.00 | 0.00 | 0.00 | 59 | 1012.3 |
| 20260507155922 | 17 | 225 | 11.3 | 27.4 | 0.00 | 0.00 | 0.00 | 59 | 1012.3 |
| 20260507155813 | 17 | 227 | 11.3 | 27.4 | 0.00 | 0.00 | 0.00 | 59 | 1012.3 |
| 20260507155724 | 17 | 184 | 11.3 | 27.4 | 0.00 | 0.00 | 0.00 | 59 | 1012.3 |
| 20260507155635 | 17 | 196 | 9.7 | 27.4 | 0.00 | 0.00 | 0.00 | 59 | 1012.3 |
| 20260507155531 | 17 | 218 | 9.7 | 27.4 | 0.00 | 0.00 | 0.00 | 59 | 1012.3 |
| 20260507155423 | 17 | 182 | 12.9 | 27.4 | 0.00 | 0.00 | 0.00 | 59 | 1012.3 |
| 20260507155315 | 17 | 203 | 17.7 | 27.4 | 0.00 | 0.00 | 0.00 | 59 | 1012.3 |
| 20260507155226 | 17 | 188 | 17.7 | 27.4 | 0.00 | 0.00 | 0.00 | 58 | 1012.3 |
| 20260507155139 | 17 | 189 | 16.1 | 25.7 | 0.00 | 0.00 | 0.00 | 58 | 1012.2 |
| 20260507155049 | 17 | 187 | 16.1 | 25.7 | 0.00 | 0.00 | 0.00 | 58 | 1012.3 |
| 20260507154944 | 17 | 201 | 12.9 | 25.7 | 0.00 | 0.00 | 0.00 | 58 | 1012.2 |
| 20260507154816 | 17 | 188 | 12.9 | 25.7 | 0.00 | 0.00 | 0.00 | 59 | 1012.2 |
| 20260507154727 | 17 | 219 | 16.1 | 25.7 | 0.00 | 0.00 | 0.00 | 58 | 1012.2 |
| 20260507154617 | 17 | 190 | 17.7 | 25.7 | 0.00 | 0.00 | 0.00 | 58 | 1012.2 |
| 20260507154529 | 17 | 163 | 14.5 | 25.7 | 0.00 | 0.00 | 0.00 | 57 | 1012.2 |
| 20260507154445 | 17 | 196 | 12.9 | 20.9 | 0.00 | 0.00 | 0.00 | 58 | 1012.1 |
| 20260507053616 | 10 | 178 | 3.2 | 11.3 | 0.00 | 0.00 | 0.00 | 93 | 1012.8 |
| 20260507053512 | 10 | 178 | 3.2 | 11.3 | 0.00 | 0.00 | 0.00 | 93 | 1012.7 |
| 20260507053424 | 10 | 178 | 3.2 | 12.9 | 0.00 | 0.00 | 0.00 | 93 | 1012.7 |
| 20260507053316 | 10 | 178 | 4.8 | 12.9 | 0.00 | 0.00 | 0.00 | 93 | 1012.7 |
| 20260507053228 | 10 | 178 | 4.8 | 12.9 | 0.00 | 0.00 | 0.00 | 93 | 1012.7 |
| 20260507053120 | 10 | 178 | 4.8 | 12.9 | 0.00 | 0.00 | 0.00 | 93 | 1012.7 |
| 20260507053032 | 10 | 182 | 4.8 | 12.9 | 0.00 | 0.00 | 0.00 | 93 | 1012.7 |
| 20260507052948 | 10 | 182 | 4.8 | 12.9 | 0.00 | 0.00 | 0.00 | 93 | 1012.7 |
| 20260507052820 | 10 | 182 | 6.4 | 12.9 | 0.00 | 0.00 | 0.00 | 93 | 1012.6 |
| 20260507052752 | 10 | 185 | 6.4 | 12.9 | 0.00 | 0.00 | 0.00 | 93 | 1012.7 |
| 20260507052624 | 10 | 180 | 6.4 | 12.9 | 0.00 | 0.00 | 0.00 | 93 | 1012.6 |
| 20260507052535 | 10 | 180 | 8.0 | 12.9 | 0.00 | 0.00 | 0.00 | 93 | 1012.6 |
| 20260507052445 | 10 | 180 | 8.0 | 12.9 | 0.00 | 0.00 | 0.00 | 93 | 1012.6 |
| 20260507052315 | 10 | 180 | 6.4 | 11.3 | 0.00 | 0.00 | 0.00 | 93 | 1012.7 |
| 20260507052231 | 10 | 180 | 8.0 | 11.3 | 0.00 | 0.00 | 0.00 | 93 | 1012.7 |
| 20260507052123 | 10 | 173 | 8.0 | 11.3 | 0.00 | 0.00 | 0.00 | 93 | 1012.7 |
| 20260507052015 | 10 | 172 | 6.4 | 11.3 | 0.00 | 0.00 | 0.00 | 93 | 1012.6 |
| 20260507051927 | 10 | 184 | 4.8 | 8.0 | 0.00 | 0.00 | 0.00 | 93 | 1012.6 |
| 20260507051819 | 10 | 190 | 4.8 | 11.3 | 0.00 | 0.00 | 0.00 | 93 | 1012.6 |
| 20260507051735 | 10 | 190 | 4.8 | 11.3 | 0.00 | 0.00 | 0.00 | 93 | 1012.6 |
| 20260507051626 | 10 | 190 | 4.8 | 11.3 | 0.00 | 0.00 | 0.00 | 93 | 1012.6 |
| 20260507051519 | 10 | 190 | 1.6 | 11.3 | 0.00 | 0.00 | 0.00 | 93 | 1012.6 |
| 20260507051451 | 10 | 190 | 1.6 | 11.3 | 0.00 | 0.00 | 0.00 | 93 | 1012.6 |
| 20260507051322 | 10 | 191 | 1.6 | 11.3 | 0.00 | 0.00 | 0.00 | 93 | 1012.5 |
| 20260507051214 | 10 | 190 | 1.6 | 16.1 | 0.00 | 0.00 | 0.00 | 93 | 1012.6 |
| 20260507051131 | 10 | 190 | 3.2 | 16.1 | 0.00 | 0.00 | 0.00 | 93 | 1012.6 |
| 20260507051044 | 10 | 190 | 6.4 | 16.1 | 0.00 | 0.00 | 0.00 | 93 | 1012.5 |
| 20260507050915 | 10 | 192 | 6.4 | 16.1 | 0.00 | 0.00 | 0.00 | 93 | 1012.4 |
| 20260507050824 | 10 | 238 | 4.8 | 16.1 | 0.00 | 0.00 | 0.00 | 93 | 1012.4 |
| 20260507050717 | 10 | 192 | 3.2 | 16.1 | 0.00 | 0.00 | 0.00 | 93 | 1012.4 |
| 20260507050628 | 10 | 192 | 3.2 | 16.1 | 0.00 | 0.00 | 0.00 | 93 | 1012.4 |
| 20260507050524 | 10 | 192 | 3.2 | 16.1 | 0.00 | 0.00 | 0.00 | 93 | 1012.4 |
| 20260507050415 | 10 | 221 | 8.0 | 16.1 | 0.00 | 0.00 | 0.00 | 93 | 1012.4 |
| 20260507050348 | 10 | 239 | 9.7 | 16.1 | 0.00 | 0.00 | 0.00 | 93 | 1012.4 |
| 20260507050220 | 10 | 190 | 8.0 | 17.7 | 0.00 | 0.00 | 0.00 | 93 | 1012.4 |
| 20260507050153 | 10 | 109 | 4.8 | 11.3 | 0.00 | 0.00 | 0.00 | 93 | 1012.3 |
| 20260507050022 | 10 | 179 | 4.8 | 11.3 | 0.00 | 0.00 | 0.00 | 93 | 1012.3 |
| 20260507045917 | 10 | 179 | 6.4 | 11.3 | 0.00 | 0.00 | 0.00 | 93 | 1012.3 |
| 20260507045830 | 10 | 184 | 6.4 | 11.3 | 0.00 | 0.00 | 0.00 | 93 | 1012.4 |
| 20260507045722 | 10 | 184 | 6.4 | 11.3 | 0.00 | 0.00 | 0.00 | 93 | 1012.3 |
| 20260507045613 | 10 | 166 | 6.4 | 11.3 | 0.00 | 0.00 | 0.00 | 93 | 1012.3 |
| 20260507045525 | 10 | 158 | 6.4 | 11.3 | 0.00 | 0.00 | 0.00 | 93 | 1012.3 |
| 20260507045421 | 9 | 178 | 6.4 | 12.9 | 0.00 | 0.00 | 0.00 | 93 | 1012.2 |
| 20260507045333 | 9 | 178 | 4.8 | 12.9 | 0.00 | 0.00 | 0.00 | 93 | 1012.2 |
| 20260507045246 | 9 | 121 | 4.8 | 11.3 | 0.00 | 0.00 | 0.00 | 93 | 1012.2 |
| 20260507045115 | 9 | 153 | 3.2 | 11.3 | 0.00 | 0.00 | 0.00 | 93 | 1012.2 |
| 20260507045047 | 9 | 151 | 3.2 | 11.3 | 0.00 | 0.00 | 0.00 | 93 | 1012.2 |
| 20260507044918 | 9 | 142 | 3.2 | 6.4 | 0.00 | 0.00 | 0.00 | 93 | 1012.2 |
| 20260507044851 | 9 | 141 | 3.2 | 9.7 | 0.00 | 0.00 | 0.00 | 93 | 1012.2 |
| 20260507044726 | 9 | 119 | 3.2 | 9.7 | 0.00 | 0.00 | 0.00 | 93 | 1012.2 |
| 20260507044617 | 9 | 117 | 1.6 | 9.7 | 0.00 | 0.00 | 0.00 | 93 | 1012.2 |
| 20260507044529 | 9 | 117 | 1.6 | 9.7 | 0.00 | 0.00 | 0.00 | 93 | 1012.2 |
| 20260507044421 | 9 | 117 | 1.6 | 9.7 | 0.00 | 0.00 | 0.00 | 93 | 1012.2 |
| 20260507044312 | 9 | 117 | 1.6 | 9.7 | 0.00 | 0.00 | 0.00 | 93 | 1012.2 |
| 20260507044228 | 9 | 117 | 1.6 | 9.7 | 0.00 | 0.00 | 0.00 | 93 | 1012.2 |
| 20260507044140 | 9 | 117 | 1.6 | 9.7 | 0.00 | 0.00 | 0.00 | 93 | 1012.2 |
| 20260507044031 | 9 | 117 | 3.2 | 9.7 | 0.00 | 0.00 | 0.00 | 93 | 1012.2 |
| 20260507043922 | 9 | 117 | 4.8 | 9.7 | 0.00 | 0.00 | 0.00 | 93 | 1012.2 |
| 20260507043814 | 9 | 115 | 3.2 | 6.4 | 0.00 | 0.00 | 0.00 | 93 | 1012.2 |
| 20260507043725 | 9 | 121 | 1.6 | 6.4 | 0.00 | 0.00 | 0.00 | 93 | 1012.2 |
| 20260507043636 | 9 | 121 | 1.6 | 11.3 | 0.00 | 0.00 | 0.00 | 93 | 1012.2 |
| 20260507043552 | 9 | 121 | 1.6 | 11.3 | 0.00 | 0.00 | 0.00 | 93 | 1012.2 |
| 20260507043423 | 9 | 121 | 1.6 | 11.3 | 0.00 | 0.00 | 0.00 | 93 | 1012.2 |
| 20260507043315 | 9 | 121 | 3.2 | 11.3 | 0.00 | 0.00 | 0.00 | 93 | 1012.1 |
| 20260507043228 | 9 | 121 | 3.2 | 11.3 | 0.00 | 0.00 | 0.00 | 93 | 1012.1 |
| 20260507043121 | 9 | 121 | 3.2 | 11.3 | 0.00 | 0.00 | 0.00 | 93 | 1012.2 |
| 20260507043036 | 9 | 121 | 1.6 | 11.3 | 0.00 | 0.00 | 0.00 | 93 | 1012.1 |
| 20260507042928 | 9 | 119 | 3.2 | 11.3 | 0.00 | 0.00 | 0.00 | 93 | 1012.1 |
| 20260507042821 | 9 | 119 | 4.8 | 11.3 | 0.00 | 0.00 | 0.00 | 93 | 1012.1 |
| 20260507042713 | 9 | 119 | 6.4 | 11.3 | 0.00 | 0.00 | 0.00 | 93 | 1012.1 |
| 20260507042645 | 9 | 119 | 6.4 | 11.3 | 0.00 | 0.00 | 0.00 | 93 | 1012.1 |
| 20260507042516 | 9 | 119 | 4.8 | 9.7 | 0.00 | 0.00 | 0.00 | 93 | 1012.1 |
| 20260507042433 | 9 | 125 | 3.2 | 12.9 | 0.00 | 0.00 | 0.00 | 93 | 1012.1 |
| 20260507042324 | 9 | 123 | 4.8 | 14.5 | 0.00 | 0.00 | 0.00 | 93 | 1012.1 |
| 20260507042217 | 10 | 123 | 6.4 | 16.1 | 0.00 | 0.00 | 0.00 | 93 | 1012.0 |
| 20260507042128 | 10 | 123 | 4.8 | 16.1 | 0.00 | 0.00 | 0.00 | 93 | 1012.1 |
| 20260507042020 | 10 | 169 | 4.8 | 16.1 | 0.00 | 0.00 | 0.00 | 93 | 1012.1 |
| 20260507041917 | 10 | 169 | 4.8 | 16.1 | 0.00 | 0.00 | 0.00 | 93 | 1012.1 |
| 20260507041829 | 10 | 169 | 4.8 | 16.1 | 0.00 | 0.00 | 0.00 | 93 | 1012.1 |
| 20260507041741 | 10 | 169 | 6.4 | 16.1 | 0.00 | 0.00 | 0.00 | 93 | 1012.1 |
| 20260507041633 | 10 | 171 | 8.0 | 16.1 | 0.00 | 0.00 | 0.00 | 93 | 1012.0 |
| 20260507041524 | 10 | 186 | 9.7 | 16.1 | 0.00 | 0.00 | 0.00 | 93 | 1012.0 |
| 20260507041416 | 10 | 186 | 11.3 | 16.1 | 0.00 | 0.00 | 0.00 | 93 | 1012.0 |
| 20260507041312 | 10 | 188 | 9.7 | 16.1 | 0.00 | 0.00 | 0.00 | 93 | 1012.1 |
| 20260507041224 | 10 | 178 | 8.0 | 11.3 | 0.00 | 0.00 | 0.00 | 93 | 1012.1 |
| 20260507041117 | 10 | 179 | 6.4 | 11.3 | 0.00 | 0.00 | 0.00 | 93 | 1012.0 |
| 20260507041028 | 10 | 179 | 6.4 | 11.3 | 0.00 | 0.00 | 0.00 | 93 | 1012.0 |
| 20260507040923 | 10 | 179 | 4.8 | 11.3 | 0.00 | 0.00 | 0.00 | 93 | 1012.0 |